Multibeam Report for MV1406


Ship Name: Melville
Chief Scientist: Landry, Michael
Scripps Institution of Oceanography
Source Organization: UNOLS R2R
Start Date: 2014-08-06
End Date: 2014-09-04


View ISO Metadata

Visit the full NCEI Bathymetry Viewer


Multibeam Bathymetry

Cruise Details

Project: Ecological Transitions in the California Current Ecosystem: Phase II
Instrument: Kongsberg EM122

Data Quality

Number of Files: 1325
Number of Records: 1008620
BATHYMETRY DATA Quantity Percentage
Number of Beams 435723840 100%
Number of Good Beams 407219039 93.46%
Number of Zero Beams 74624 0.02%
Number of Flagged Beams 28430177 6.52%

Navigation Totals

Total Time: 654.7375 hours
Total Track Length: 4175.3919 km
Average Speed: 6.377 km/hr (3.4433 knots)

Cruise Bounds

Northern Extent: 34.936836
Southern Extent: 32.130024
Western Extent: -123.99525
Eastern Extent: -117.15641

Limits

Minimum Sonar Depth 2.0233 Maximum Sonar Depth 7.3897
Minimum Altitude 7.7627 Maximum Altitude 5013.2554
Minimum Depth 9.5289 Maximum Depth 5237.5264

File Information

Full Resolution Bathymetry as collected (raw): 1323

Files File Size Description
0000_20140806_153224_melville.all.mb58.gz 237.93MB Kongsberg multibeam vendor format
0001_20140806_160224_melville.all.mb58.gz 229.92MB Kongsberg multibeam vendor format
0002_20140806_163224_melville.all.mb58.gz 135.19MB Kongsberg multibeam vendor format
0003_20140806_170224_melville.all.mb58.gz 126.42MB Kongsberg multibeam vendor format
0004_20140806_173224_melville.all.mb58.gz 110.49MB Kongsberg multibeam vendor format
0005_20140806_180224_melville.all.mb58.gz 60.16MB Kongsberg multibeam vendor format
0006_20140806_183225_melville.all.mb58.gz 57.59MB Kongsberg multibeam vendor format
0007_20140806_190224_melville.all.mb58.gz 21.78MB Kongsberg multibeam vendor format
0008_20140806_193223_melville.all.mb58.gz 21.87MB Kongsberg multibeam vendor format
0009_20140806_200223_melville.all.mb58.gz 47.99MB Kongsberg multibeam vendor format
0010_20140806_203226_melville.all.mb58.gz 42.04MB Kongsberg multibeam vendor format
0011_20140806_210228_melville.all.mb58.gz 40.43MB Kongsberg multibeam vendor format
0012_20140806_213231_melville.all.mb58.gz 34.85MB Kongsberg multibeam vendor format
0013_20140806_220238_melville.all.mb58.gz 34.61MB Kongsberg multibeam vendor format
0014_20140806_223230_melville.all.mb58.gz 46.98MB Kongsberg multibeam vendor format
0015_20140806_230225_melville.all.mb58.gz 58.18MB Kongsberg multibeam vendor format
0016_20140806_233223_melville.all.mb58.gz 48.43MB Kongsberg multibeam vendor format
0017_20140807_000222_melville.all.mb58.gz 52.44MB Kongsberg multibeam vendor format
0018_20140807_003224_melville.all.mb58.gz 53.20MB Kongsberg multibeam vendor format
0019_20140807_010224_melville.all.mb58.gz 52.99MB Kongsberg multibeam vendor format
0020_20140807_013222_melville.all.mb58.gz 53.25MB Kongsberg multibeam vendor format
0021_20140807_020222_melville.all.mb58.gz 51.88MB Kongsberg multibeam vendor format
0022_20140807_023223_melville.all.mb58.gz 47.21MB Kongsberg multibeam vendor format
0023_20140807_030227_melville.all.mb58.gz 43.75MB Kongsberg multibeam vendor format
0024_20140807_033222_melville.all.mb58.gz 39.82MB Kongsberg multibeam vendor format
0025_20140807_040225_melville.all.mb58.gz 45.94MB Kongsberg multibeam vendor format
0026_20140807_043222_melville.all.mb58.gz 48.18MB Kongsberg multibeam vendor format
0027_20140807_050222_melville.all.mb58.gz 49.40MB Kongsberg multibeam vendor format
0028_20140807_053225_melville.all.mb58.gz 32.79MB Kongsberg multibeam vendor format
0029_20140807_060224_melville.all.mb58.gz 38.27MB Kongsberg multibeam vendor format
0030_20140807_063225_melville.all.mb58.gz 40.28MB Kongsberg multibeam vendor format
0031_20140807_070222_melville.all.mb58.gz 37.17MB Kongsberg multibeam vendor format
0032_20140807_073221_melville.all.mb58.gz 36.74MB Kongsberg multibeam vendor format
0033_20140807_080220_melville.all.mb58.gz 36.15MB Kongsberg multibeam vendor format
0034_20140807_083220_melville.all.mb58.gz 36.43MB Kongsberg multibeam vendor format
0035_20140807_090222_melville.all.mb58.gz 36.21MB Kongsberg multibeam vendor format
0036_20140807_093218_melville.all.mb58.gz 40.08MB Kongsberg multibeam vendor format
0037_20140807_100221_melville.all.mb58.gz 43.81MB Kongsberg multibeam vendor format
0038_20140807_103218_melville.all.mb58.gz 48.87MB Kongsberg multibeam vendor format
0039_20140807_110218_melville.all.mb58.gz 47.87MB Kongsberg multibeam vendor format
0040_20140807_113222_melville.all.mb58.gz 48.06MB Kongsberg multibeam vendor format
0041_20140807_120218_melville.all.mb58.gz 48.69MB Kongsberg multibeam vendor format
0042_20140807_123224_melville.all.mb58.gz 48.47MB Kongsberg multibeam vendor format
0043_20140807_130221_melville.all.mb58.gz 49.99MB Kongsberg multibeam vendor format
0044_20140807_133222_melville.all.mb58.gz 50.28MB Kongsberg multibeam vendor format
0045_20140807_140223_melville.all.mb58.gz 46.42MB Kongsberg multibeam vendor format
0046_20140807_143218_melville.all.mb58.gz 40.66MB Kongsberg multibeam vendor format
0047_20140807_150218_melville.all.mb58.gz 40.52MB Kongsberg multibeam vendor format
0048_20140807_153222_melville.all.mb58.gz 43.71MB Kongsberg multibeam vendor format
0049_20140807_160221_melville.all.mb58.gz 40.72MB Kongsberg multibeam vendor format
0050_20140807_163221_melville.all.mb58.gz 40.59MB Kongsberg multibeam vendor format
0051_20140807_170221_melville.all.mb58.gz 41.12MB Kongsberg multibeam vendor format
0052_20140807_173220_melville.all.mb58.gz 40.83MB Kongsberg multibeam vendor format
0053_20140807_180222_melville.all.mb58.gz 40.16MB Kongsberg multibeam vendor format
0054_20140807_183217_melville.all.mb58.gz 40.61MB Kongsberg multibeam vendor format
0055_20140807_190217_melville.all.mb58.gz 47.57MB Kongsberg multibeam vendor format
0056_20140807_193220_melville.all.mb58.gz 48.74MB Kongsberg multibeam vendor format
0057_20140807_200220_melville.all.mb58.gz 50.93MB Kongsberg multibeam vendor format
0058_20140807_203215_melville.all.mb58.gz 59.76MB Kongsberg multibeam vendor format
0059_20140807_210215_melville.all.mb58.gz 60.62MB Kongsberg multibeam vendor format
0060_20140807_213216_melville.all.mb58.gz 62.54MB Kongsberg multibeam vendor format
0061_20140807_220214_melville.all.mb58.gz 81.14MB Kongsberg multibeam vendor format
0062_20140807_223214_melville.all.mb58.gz 84.03MB Kongsberg multibeam vendor format
0063_20140807_230216_melville.all.mb58.gz 52.02MB Kongsberg multibeam vendor format
0064_20140807_233216_melville.all.mb58.gz 53.30MB Kongsberg multibeam vendor format
0065_20140808_000214_melville.all.mb58.gz 54.62MB Kongsberg multibeam vendor format
0066_20140808_003214_melville.all.mb58.gz 56.43MB Kongsberg multibeam vendor format
0067_20140808_010214_melville.all.mb58.gz 64.46MB Kongsberg multibeam vendor format
0068_20140808_013213_melville.all.mb58.gz 84.51MB Kongsberg multibeam vendor format
0069_20140808_020213_melville.all.mb58.gz 85.41MB Kongsberg multibeam vendor format
0070_20140808_023212_melville.all.mb58.gz 81.61MB Kongsberg multibeam vendor format
0071_20140808_030213_melville.all.mb58.gz 78.27MB Kongsberg multibeam vendor format
0072_20140808_033212_melville.all.mb58.gz 71.23MB Kongsberg multibeam vendor format
0073_20140808_040212_melville.all.mb58.gz 67.32MB Kongsberg multibeam vendor format
0074_20140808_043212_melville.all.mb58.gz 63.43MB Kongsberg multibeam vendor format
0075_20140808_050211_melville.all.mb58.gz 59.31MB Kongsberg multibeam vendor format
0076_20140808_053211_melville.all.mb58.gz 58.82MB Kongsberg multibeam vendor format
0077_20140808_060211_melville.all.mb58.gz 58.80MB Kongsberg multibeam vendor format
0078_20140808_063213_melville.all.mb58.gz 59.24MB Kongsberg multibeam vendor format
0079_20140808_070212_melville.all.mb58.gz 60.38MB Kongsberg multibeam vendor format
0080_20140808_073211_melville.all.mb58.gz 64.74MB Kongsberg multibeam vendor format
0081_20140808_080212_melville.all.mb58.gz 65.74MB Kongsberg multibeam vendor format
0082_20140808_083211_melville.all.mb58.gz 62.90MB Kongsberg multibeam vendor format
0083_20140808_090213_melville.all.mb58.gz 60.45MB Kongsberg multibeam vendor format
0084_20140808_093211_melville.all.mb58.gz 58.42MB Kongsberg multibeam vendor format
0085_20140808_100213_melville.all.mb58.gz 55.82MB Kongsberg multibeam vendor format
0086_20140808_103210_melville.all.mb58.gz 54.33MB Kongsberg multibeam vendor format
0087_20140808_110213_melville.all.mb58.gz 54.39MB Kongsberg multibeam vendor format
0088_20140808_113211_melville.all.mb58.gz 54.85MB Kongsberg multibeam vendor format
0089_20140808_120213_melville.all.mb58.gz 54.55MB Kongsberg multibeam vendor format
0090_20140808_123212_melville.all.mb58.gz 55.39MB Kongsberg multibeam vendor format
0091_20140808_130212_melville.all.mb58.gz 20.14MB Kongsberg multibeam vendor format
0091_20140808_134508_melville.all.mb58.gz 60.33MB Kongsberg multibeam vendor format
0092_20140808_141508_melville.all.mb58.gz 66.01MB Kongsberg multibeam vendor format
0093_20140808_144507_melville.all.mb58.gz 97.33MB Kongsberg multibeam vendor format
0094_20140808_151508_melville.all.mb58.gz 1.76MB Kongsberg multibeam vendor format
0095_20140809_162142_melville.all.mb58.gz 50.12MB Kongsberg multibeam vendor format
0096_20140809_165141_melville.all.mb58.gz 47.95MB Kongsberg multibeam vendor format
0097_20140809_172146_melville.all.mb58.gz 42.85MB Kongsberg multibeam vendor format
0098_20140809_175140_melville.all.mb58.gz 39.45MB Kongsberg multibeam vendor format
0099_20140809_182143_melville.all.mb58.gz 37.47MB Kongsberg multibeam vendor format
0100_20140809_185139_melville.all.mb58.gz 36.73MB Kongsberg multibeam vendor format
0101_20140809_192151_melville.all.mb58.gz 29.32MB Kongsberg multibeam vendor format
0102_20140809_195143_melville.all.mb58.gz 26.80MB Kongsberg multibeam vendor format
0103_20140809_202144_melville.all.mb58.gz 25.95MB Kongsberg multibeam vendor format
0104_20140809_205138_melville.all.mb58.gz 26.30MB Kongsberg multibeam vendor format
0105_20140809_212157_melville.all.mb58.gz 26.25MB Kongsberg multibeam vendor format
0106_20140809_215159_melville.all.mb58.gz 25.95MB Kongsberg multibeam vendor format
0107_20140809_222143_melville.all.mb58.gz 32.36MB Kongsberg multibeam vendor format
0108_20140809_225138_melville.all.mb58.gz 37.25MB Kongsberg multibeam vendor format
0109_20140809_232141_melville.all.mb58.gz 36.68MB Kongsberg multibeam vendor format
0110_20140809_235140_melville.all.mb58.gz 35.96MB Kongsberg multibeam vendor format
0111_20140810_002145_melville.all.mb58.gz 40.96MB Kongsberg multibeam vendor format
0112_20140810_005143_melville.all.mb58.gz 44.67MB Kongsberg multibeam vendor format
0113_20140810_012144_melville.all.mb58.gz 47.84MB Kongsberg multibeam vendor format
0114_20140810_015141_melville.all.mb58.gz 53.25MB Kongsberg multibeam vendor format
0115_20140810_022137_melville.all.mb58.gz 55.48MB Kongsberg multibeam vendor format
0116_20140810_025137_melville.all.mb58.gz 55.52MB Kongsberg multibeam vendor format
0117_20140810_032140_melville.all.mb58.gz 54.86MB Kongsberg multibeam vendor format
0118_20140810_035136_melville.all.mb58.gz 53.79MB Kongsberg multibeam vendor format
0119_20140810_042139_melville.all.mb58.gz 52.10MB Kongsberg multibeam vendor format
0120_20140810_045139_melville.all.mb58.gz 50.55MB Kongsberg multibeam vendor format
0121_20140810_052141_melville.all.mb58.gz 49.32MB Kongsberg multibeam vendor format
0122_20140810_055139_melville.all.mb58.gz 40.96MB Kongsberg multibeam vendor format
0123_20140810_062146_melville.all.mb58.gz 33.90MB Kongsberg multibeam vendor format
0124_20140810_065139_melville.all.mb58.gz 27.65MB Kongsberg multibeam vendor format
0125_20140810_072147_melville.all.mb58.gz 27.12MB Kongsberg multibeam vendor format
0126_20140810_075148_melville.all.mb58.gz 26.66MB Kongsberg multibeam vendor format
0127_20140810_082141_melville.all.mb58.gz 26.42MB Kongsberg multibeam vendor format
0128_20140810_085138_melville.all.mb58.gz 26.89MB Kongsberg multibeam vendor format
0129_20140810_092134_melville.all.mb58.gz 26.92MB Kongsberg multibeam vendor format
0130_20140810_095146_melville.all.mb58.gz 29.46MB Kongsberg multibeam vendor format
0131_20140810_102141_melville.all.mb58.gz 38.09MB Kongsberg multibeam vendor format
0132_20140810_105142_melville.all.mb58.gz 48.33MB Kongsberg multibeam vendor format
0133_20140810_112133_melville.all.mb58.gz 50.63MB Kongsberg multibeam vendor format
0134_20140810_115138_melville.all.mb58.gz 52.22MB Kongsberg multibeam vendor format
0135_20140810_122138_melville.all.mb58.gz 1.54MB Kongsberg multibeam vendor format
0136_20140810_122454_melville.all.mb58.gz 53.53MB Kongsberg multibeam vendor format
0137_20140810_125452_melville.all.mb58.gz 57.24MB Kongsberg multibeam vendor format
0138_20140810_132454_melville.all.mb58.gz 61.79MB Kongsberg multibeam vendor format
0139_20140810_135451_melville.all.mb58.gz 15.42MB Kongsberg multibeam vendor format
0145_20140810_140217_melville.all.mb58.gz 73.24MB Kongsberg multibeam vendor format
0146_20140810_143216_melville.all.mb58.gz 120.38MB Kongsberg multibeam vendor format
0147_20140810_150216_melville.all.mb58.gz 172.62MB Kongsberg multibeam vendor format
0148_20140810_153215_melville.all.mb58.gz 169.01MB Kongsberg multibeam vendor format
0149_20140810_160215_melville.all.mb58.gz 147.03MB Kongsberg multibeam vendor format
0150_20140810_163215_melville.all.mb58.gz 156.61MB Kongsberg multibeam vendor format
0151_20140810_170215_melville.all.mb58.gz 154.92MB Kongsberg multibeam vendor format
0152_20140810_173215_melville.all.mb58.gz 153.92MB Kongsberg multibeam vendor format
0153_20140810_180215_melville.all.mb58.gz 152.99MB Kongsberg multibeam vendor format
0154_20140810_183214_melville.all.mb58.gz 152.16MB Kongsberg multibeam vendor format
0155_20140810_190214_melville.all.mb58.gz 152.56MB Kongsberg multibeam vendor format
0156_20140810_193214_melville.all.mb58.gz 154.63MB Kongsberg multibeam vendor format
0157_20140810_200214_melville.all.mb58.gz 138.32MB Kongsberg multibeam vendor format
0158_20140810_203214_melville.all.mb58.gz 96.93MB Kongsberg multibeam vendor format
0159_20140810_210215_melville.all.mb58.gz 74.64MB Kongsberg multibeam vendor format
0160_20140810_213215_melville.all.mb58.gz 63.54MB Kongsberg multibeam vendor format
0161_20140810_220215_melville.all.mb58.gz 66.40MB Kongsberg multibeam vendor format
0162_20140810_223214_melville.all.mb58.gz 72.91MB Kongsberg multibeam vendor format
0163_20140810_230214_melville.all.mb58.gz 66.39MB Kongsberg multibeam vendor format
0164_20140810_233212_melville.all.mb58.gz 67.31MB Kongsberg multibeam vendor format
0165_20140811_000213_melville.all.mb58.gz 119.14MB Kongsberg multibeam vendor format
0166_20140811_003212_melville.all.mb58.gz 90.11MB Kongsberg multibeam vendor format
0167_20140811_010212_melville.all.mb58.gz 131.17MB Kongsberg multibeam vendor format
0168_20140811_013212_melville.all.mb58.gz 95.65MB Kongsberg multibeam vendor format
0169_20140811_020213_melville.all.mb58.gz 61.31MB Kongsberg multibeam vendor format
0170_20140811_023214_melville.all.mb58.gz 58.03MB Kongsberg multibeam vendor format
0171_20140811_030212_melville.all.mb58.gz 59.41MB Kongsberg multibeam vendor format
0172_20140811_033212_melville.all.mb58.gz 59.04MB Kongsberg multibeam vendor format
0173_20140811_040212_melville.all.mb58.gz 58.48MB Kongsberg multibeam vendor format
0174_20140811_043213_melville.all.mb58.gz 60.70MB Kongsberg multibeam vendor format
0175_20140811_050211_melville.all.mb58.gz 62.19MB Kongsberg multibeam vendor format
0176_20140811_053211_melville.all.mb58.gz 61.60MB Kongsberg multibeam vendor format
0177_20140811_060211_melville.all.mb58.gz 61.48MB Kongsberg multibeam vendor format
0178_20140811_063213_melville.all.mb58.gz 60.95MB Kongsberg multibeam vendor format
0179_20140811_070212_melville.all.mb58.gz 60.12MB Kongsberg multibeam vendor format
0180_20140811_073210_melville.all.mb58.gz 61.34MB Kongsberg multibeam vendor format
0181_20140811_080211_melville.all.mb58.gz 63.46MB Kongsberg multibeam vendor format
0182_20140811_083209_melville.all.mb58.gz 65.34MB Kongsberg multibeam vendor format
0183_20140811_090211_melville.all.mb58.gz 66.01MB Kongsberg multibeam vendor format
0184_20140811_093211_melville.all.mb58.gz 66.88MB Kongsberg multibeam vendor format
0185_20140811_100210_melville.all.mb58.gz 69.13MB Kongsberg multibeam vendor format
0186_20140811_103210_melville.all.mb58.gz 73.42MB Kongsberg multibeam vendor format
0187_20140811_110210_melville.all.mb58.gz 76.40MB Kongsberg multibeam vendor format
0188_20140811_113209_melville.all.mb58.gz 78.53MB Kongsberg multibeam vendor format
0189_20140811_120209_melville.all.mb58.gz 73.43MB Kongsberg multibeam vendor format
0190_20140811_123210_melville.all.mb58.gz 69.01MB Kongsberg multibeam vendor format
0191_20140811_130208_melville.all.mb58.gz 76.08MB Kongsberg multibeam vendor format
0192_20140811_133209_melville.all.mb58.gz 75.35MB Kongsberg multibeam vendor format
0193_20140811_140209_melville.all.mb58.gz 75.69MB Kongsberg multibeam vendor format
0194_20140811_143208_melville.all.mb58.gz 90.51MB Kongsberg multibeam vendor format
0195_20140811_150208_melville.all.mb58.gz 71.09MB Kongsberg multibeam vendor format
0196_20140811_153208_melville.all.mb58.gz 90.40MB Kongsberg multibeam vendor format
0197_20140811_160207_melville.all.mb58.gz 93.17MB Kongsberg multibeam vendor format
0198_20140811_163207_melville.all.mb58.gz 90.19MB Kongsberg multibeam vendor format
0199_20140811_170208_melville.all.mb58.gz 81.09MB Kongsberg multibeam vendor format
0200_20140811_173207_melville.all.mb58.gz 66.42MB Kongsberg multibeam vendor format
0201_20140811_180207_melville.all.mb58.gz 85.30MB Kongsberg multibeam vendor format
0202_20140811_183207_melville.all.mb58.gz 85.64MB Kongsberg multibeam vendor format
0203_20140811_190206_melville.all.mb58.gz 77.09MB Kongsberg multibeam vendor format
0204_20140811_193207_melville.all.mb58.gz 80.72MB Kongsberg multibeam vendor format
0205_20140811_200206_melville.all.mb58.gz 123.72MB Kongsberg multibeam vendor format
0206_20140811_210921_melville.all.mb58.gz 71.39MB Kongsberg multibeam vendor format
0207_20140811_213920_melville.all.mb58.gz 75.87MB Kongsberg multibeam vendor format
0208_20140811_220920_melville.all.mb58.gz 74.67MB Kongsberg multibeam vendor format
0209_20140811_223921_melville.all.mb58.gz 72.82MB Kongsberg multibeam vendor format
0210_20140811_230919_melville.all.mb58.gz 72.53MB Kongsberg multibeam vendor format
0211_20140811_233919_melville.all.mb58.gz 72.13MB Kongsberg multibeam vendor format
0212_20140812_000920_melville.all.mb58.gz 66.67MB Kongsberg multibeam vendor format
0213_20140812_003921_melville.all.mb58.gz 66.18MB Kongsberg multibeam vendor format
0214_20140812_010920_melville.all.mb58.gz 70.17MB Kongsberg multibeam vendor format
0215_20140812_013919_melville.all.mb58.gz 70.52MB Kongsberg multibeam vendor format
0216_20140812_020920_melville.all.mb58.gz 70.47MB Kongsberg multibeam vendor format
0217_20140812_023919_melville.all.mb58.gz 69.88MB Kongsberg multibeam vendor format
0218_20140812_030919_melville.all.mb58.gz 67.97MB Kongsberg multibeam vendor format
0219_20140812_033919_melville.all.mb58.gz 67.95MB Kongsberg multibeam vendor format
0220_20140812_040919_melville.all.mb58.gz 67.07MB Kongsberg multibeam vendor format
0221_20140812_043919_melville.all.mb58.gz 65.78MB Kongsberg multibeam vendor format
0222_20140812_050917_melville.all.mb58.gz 63.73MB Kongsberg multibeam vendor format
0223_20140812_053919_melville.all.mb58.gz 65.64MB Kongsberg multibeam vendor format
0224_20140812_060919_melville.all.mb58.gz 64.89MB Kongsberg multibeam vendor format
0225_20140812_063919_melville.all.mb58.gz 62.32MB Kongsberg multibeam vendor format
0226_20140812_070917_melville.all.mb58.gz 62.00MB Kongsberg multibeam vendor format
0227_20140812_073916_melville.all.mb58.gz 66.66MB Kongsberg multibeam vendor format
0228_20140812_080917_melville.all.mb58.gz 68.34MB Kongsberg multibeam vendor format
0229_20140812_083917_melville.all.mb58.gz 65.25MB Kongsberg multibeam vendor format
0230_20140812_090917_melville.all.mb58.gz 62.81MB Kongsberg multibeam vendor format
0231_20140812_093916_melville.all.mb58.gz 62.76MB Kongsberg multibeam vendor format
0232_20140812_100915_melville.all.mb58.gz 63.10MB Kongsberg multibeam vendor format
0233_20140812_103915_melville.all.mb58.gz 62.13MB Kongsberg multibeam vendor format
0234_20140812_110916_melville.all.mb58.gz 62.26MB Kongsberg multibeam vendor format
0235_20140812_113917_melville.all.mb58.gz 62.32MB Kongsberg multibeam vendor format
0236_20140812_120916_melville.all.mb58.gz 62.14MB Kongsberg multibeam vendor format
0237_20140812_123915_melville.all.mb58.gz 61.45MB Kongsberg multibeam vendor format
0238_20140812_130917_melville.all.mb58.gz 60.51MB Kongsberg multibeam vendor format
0239_20140812_133914_melville.all.mb58.gz 60.39MB Kongsberg multibeam vendor format
0240_20140812_140914_melville.all.mb58.gz 61.88MB Kongsberg multibeam vendor format
0241_20140812_143914_melville.all.mb58.gz 61.35MB Kongsberg multibeam vendor format
0242_20140812_150914_melville.all.mb58.gz 61.07MB Kongsberg multibeam vendor format
0243_20140812_153915_melville.all.mb58.gz 61.05MB Kongsberg multibeam vendor format
0244_20140812_160915_melville.all.mb58.gz 14.03MB Kongsberg multibeam vendor format
0245_20140813_012649_melville.all.mb58.gz 59.68MB Kongsberg multibeam vendor format
0246_20140813_015649_melville.all.mb58.gz 58.63MB Kongsberg multibeam vendor format
0247_20140813_022650_melville.all.mb58.gz 58.78MB Kongsberg multibeam vendor format
0248_20140813_025649_melville.all.mb58.gz 59.03MB Kongsberg multibeam vendor format
0249_20140813_032648_melville.all.mb58.gz 59.25MB Kongsberg multibeam vendor format
0250_20140813_035651_melville.all.mb58.gz 58.36MB Kongsberg multibeam vendor format
0251_20140813_042649_melville.all.mb58.gz 58.69MB Kongsberg multibeam vendor format
0252_20140813_045649_melville.all.mb58.gz 58.98MB Kongsberg multibeam vendor format
0253_20140813_052647_melville.all.mb58.gz 59.75MB Kongsberg multibeam vendor format
0254_20140813_055647_melville.all.mb58.gz 58.89MB Kongsberg multibeam vendor format
0255_20140813_062647_melville.all.mb58.gz 58.53MB Kongsberg multibeam vendor format
0256_20140813_065648_melville.all.mb58.gz 58.77MB Kongsberg multibeam vendor format
0257_20140813_072649_melville.all.mb58.gz 58.50MB Kongsberg multibeam vendor format
0258_20140813_075647_melville.all.mb58.gz 61.21MB Kongsberg multibeam vendor format
0259_20140813_082649_melville.all.mb58.gz 57.20MB Kongsberg multibeam vendor format
0260_20140813_085647_melville.all.mb58.gz 57.03MB Kongsberg multibeam vendor format
0261_20140813_092646_melville.all.mb58.gz 57.66MB Kongsberg multibeam vendor format
0262_20140813_095647_melville.all.mb58.gz 58.47MB Kongsberg multibeam vendor format
0263_20140813_102648_melville.all.mb58.gz 58.31MB Kongsberg multibeam vendor format
0264_20140813_105648_melville.all.mb58.gz 57.58MB Kongsberg multibeam vendor format
0265_20140813_112648_melville.all.mb58.gz 58.07MB Kongsberg multibeam vendor format
0266_20140813_115645_melville.all.mb58.gz 63.31MB Kongsberg multibeam vendor format
0267_20140813_122645_melville.all.mb58.gz 61.87MB Kongsberg multibeam vendor format
0268_20140813_125644_melville.all.mb58.gz 59.25MB Kongsberg multibeam vendor format
0269_20140813_132644_melville.all.mb58.gz 58.17MB Kongsberg multibeam vendor format
0270_20140813_135646_melville.all.mb58.gz 58.06MB Kongsberg multibeam vendor format
0271_20140813_142645_melville.all.mb58.gz 58.24MB Kongsberg multibeam vendor format
0272_20140813_145646_melville.all.mb58.gz 58.07MB Kongsberg multibeam vendor format
0273_20140813_152644_melville.all.mb58.gz 10.98MB Kongsberg multibeam vendor format
0274_20140813_162658_melville.all.mb58.gz 62.48MB Kongsberg multibeam vendor format
0275_20140813_165658_melville.all.mb58.gz 65.19MB Kongsberg multibeam vendor format
0276_20140813_172657_melville.all.mb58.gz 67.48MB Kongsberg multibeam vendor format
0277_20140813_175656_melville.all.mb58.gz 66.87MB Kongsberg multibeam vendor format
0278_20140813_182656_melville.all.mb58.gz 66.11MB Kongsberg multibeam vendor format
0279_20140813_185656_melville.all.mb58.gz 64.68MB Kongsberg multibeam vendor format
0280_20140813_192655_melville.all.mb58.gz 61.76MB Kongsberg multibeam vendor format
0281_20140813_195656_melville.all.mb58.gz 56.26MB Kongsberg multibeam vendor format
0282_20140813_202658_melville.all.mb58.gz 53.16MB Kongsberg multibeam vendor format
0283_20140813_205658_melville.all.mb58.gz 50.68MB Kongsberg multibeam vendor format
0284_20140813_212657_melville.all.mb58.gz 52.43MB Kongsberg multibeam vendor format
0285_20140813_215655_melville.all.mb58.gz 51.83MB Kongsberg multibeam vendor format
0286_20140813_222659_melville.all.mb58.gz 53.65MB Kongsberg multibeam vendor format
0287_20140813_225655_melville.all.mb58.gz 62.90MB Kongsberg multibeam vendor format
0288_20140813_232655_melville.all.mb58.gz 64.97MB Kongsberg multibeam vendor format
0289_20140813_235654_melville.all.mb58.gz 63.41MB Kongsberg multibeam vendor format
0290_20140814_002654_melville.all.mb58.gz 63.54MB Kongsberg multibeam vendor format
0291_20140814_005655_melville.all.mb58.gz 63.58MB Kongsberg multibeam vendor format
0292_20140814_012653_melville.all.mb58.gz 63.08MB Kongsberg multibeam vendor format
0293_20140814_015654_melville.all.mb58.gz 63.24MB Kongsberg multibeam vendor format
0294_20140814_022653_melville.all.mb58.gz 63.73MB Kongsberg multibeam vendor format
0295_20140814_025653_melville.all.mb58.gz 62.81MB Kongsberg multibeam vendor format
0296_20140814_032653_melville.all.mb58.gz 62.88MB Kongsberg multibeam vendor format
0297_20140814_035654_melville.all.mb58.gz 64.09MB Kongsberg multibeam vendor format
0298_20140814_042653_melville.all.mb58.gz 63.36MB Kongsberg multibeam vendor format
0299_20140814_045653_melville.all.mb58.gz 59.70MB Kongsberg multibeam vendor format
0300_20140814_052652_melville.all.mb58.gz 60.81MB Kongsberg multibeam vendor format
0301_20140814_055654_melville.all.mb58.gz 59.86MB Kongsberg multibeam vendor format
0302_20140814_062653_melville.all.mb58.gz 61.54MB Kongsberg multibeam vendor format
0303_20140814_065653_melville.all.mb58.gz 60.17MB Kongsberg multibeam vendor format
0304_20140814_072652_melville.all.mb58.gz 62.76MB Kongsberg multibeam vendor format
0305_20140814_075650_melville.all.mb58.gz 61.39MB Kongsberg multibeam vendor format
0306_20140814_082651_melville.all.mb58.gz 63.84MB Kongsberg multibeam vendor format
0307_20140814_085652_melville.all.mb58.gz 64.24MB Kongsberg multibeam vendor format
0308_20140814_092652_melville.all.mb58.gz 63.29MB Kongsberg multibeam vendor format
0309_20140814_095652_melville.all.mb58.gz 62.95MB Kongsberg multibeam vendor format
0310_20140814_102651_melville.all.mb58.gz 62.24MB Kongsberg multibeam vendor format
0311_20140814_105651_melville.all.mb58.gz 62.59MB Kongsberg multibeam vendor format
0312_20140814_112649_melville.all.mb58.gz 63.84MB Kongsberg multibeam vendor format
0313_20140814_115651_melville.all.mb58.gz 63.90MB Kongsberg multibeam vendor format
0314_20140814_122651_melville.all.mb58.gz 63.12MB Kongsberg multibeam vendor format
0315_20140814_125650_melville.all.mb58.gz 62.65MB Kongsberg multibeam vendor format
0316_20140814_132648_melville.all.mb58.gz 62.90MB Kongsberg multibeam vendor format
0317_20140814_135650_melville.all.mb58.gz 63.85MB Kongsberg multibeam vendor format
0318_20140814_142650_melville.all.mb58.gz 64.45MB Kongsberg multibeam vendor format
0319_20140814_145649_melville.all.mb58.gz 63.61MB Kongsberg multibeam vendor format
0320_20140814_152649_melville.all.mb58.gz 57.13MB Kongsberg multibeam vendor format
0321_20140814_155649_melville.all.mb58.gz 57.79MB Kongsberg multibeam vendor format
0322_20140814_162649_melville.all.mb58.gz 56.51MB Kongsberg multibeam vendor format
0323_20140814_165647_melville.all.mb58.gz 53.56MB Kongsberg multibeam vendor format
0324_20140814_172649_melville.all.mb58.gz 50.89MB Kongsberg multibeam vendor format
0325_20140814_175649_melville.all.mb58.gz 49.23MB Kongsberg multibeam vendor format
0326_20140814_182647_melville.all.mb58.gz 47.16MB Kongsberg multibeam vendor format
0327_20140814_185650_melville.all.mb58.gz 45.20MB Kongsberg multibeam vendor format
0328_20140814_192654_melville.all.mb58.gz 39.73MB Kongsberg multibeam vendor format
0329_20140814_195648_melville.all.mb58.gz 40.56MB Kongsberg multibeam vendor format
0330_20140814_202647_melville.all.mb58.gz 41.50MB Kongsberg multibeam vendor format
0331_20140814_205652_melville.all.mb58.gz 42.40MB Kongsberg multibeam vendor format
0332_20140814_212649_melville.all.mb58.gz 47.91MB Kongsberg multibeam vendor format
0333_20140814_215648_melville.all.mb58.gz 45.86MB Kongsberg multibeam vendor format
0334_20140814_222652_melville.all.mb58.gz 45.69MB Kongsberg multibeam vendor format
0335_20140814_225652_melville.all.mb58.gz 42.38MB Kongsberg multibeam vendor format
0336_20140814_232647_melville.all.mb58.gz 46.65MB Kongsberg multibeam vendor format
0337_20140814_235653_melville.all.mb58.gz 45.90MB Kongsberg multibeam vendor format
0338_20140815_002651_melville.all.mb58.gz 46.45MB Kongsberg multibeam vendor format
0339_20140815_005651_melville.all.mb58.gz 46.90MB Kongsberg multibeam vendor format
0340_20140815_012647_melville.all.mb58.gz 49.36MB Kongsberg multibeam vendor format
0341_20140815_015648_melville.all.mb58.gz 48.92MB Kongsberg multibeam vendor format
0342_20140815_022646_melville.all.mb58.gz 47.41MB Kongsberg multibeam vendor format
0343_20140815_025645_melville.all.mb58.gz 49.65MB Kongsberg multibeam vendor format
0344_20140815_032644_melville.all.mb58.gz 49.87MB Kongsberg multibeam vendor format
0345_20140815_035648_melville.all.mb58.gz 46.95MB Kongsberg multibeam vendor format
0346_20140815_042648_melville.all.mb58.gz 48.92MB Kongsberg multibeam vendor format
0347_20140815_045648_melville.all.mb58.gz 49.54MB Kongsberg multibeam vendor format
0348_20140815_052645_melville.all.mb58.gz 49.90MB Kongsberg multibeam vendor format
0349_20140815_055648_melville.all.mb58.gz 49.65MB Kongsberg multibeam vendor format
0350_20140815_062647_melville.all.mb58.gz 49.27MB Kongsberg multibeam vendor format
0351_20140815_065644_melville.all.mb58.gz 49.78MB Kongsberg multibeam vendor format
0352_20140815_072647_melville.all.mb58.gz 48.74MB Kongsberg multibeam vendor format
0353_20140815_075644_melville.all.mb58.gz 48.11MB Kongsberg multibeam vendor format
0354_20140815_082643_melville.all.mb58.gz 48.05MB Kongsberg multibeam vendor format
0355_20140815_085648_melville.all.mb58.gz 48.73MB Kongsberg multibeam vendor format
0356_20140815_092645_melville.all.mb58.gz 53.06MB Kongsberg multibeam vendor format
0357_20140815_095645_melville.all.mb58.gz 55.66MB Kongsberg multibeam vendor format
0358_20140815_102642_melville.all.mb58.gz 59.74MB Kongsberg multibeam vendor format
0359_20140815_105642_melville.all.mb58.gz 70.07MB Kongsberg multibeam vendor format
0360_20140815_112642_melville.all.mb58.gz 84.10MB Kongsberg multibeam vendor format
0361_20140815_115641_melville.all.mb58.gz 111.95MB Kongsberg multibeam vendor format
0362_20140815_122641_melville.all.mb58.gz 91.02MB Kongsberg multibeam vendor format
0363_20140815_125641_melville.all.mb58.gz 72.14MB Kongsberg multibeam vendor format
0364_20140815_132640_melville.all.mb58.gz 63.28MB Kongsberg multibeam vendor format
0365_20140815_135641_melville.all.mb58.gz 57.38MB Kongsberg multibeam vendor format
0366_20140815_142640_melville.all.mb58.gz 56.86MB Kongsberg multibeam vendor format
0367_20140815_145641_melville.all.mb58.gz 61.49MB Kongsberg multibeam vendor format
0368_20140815_152641_melville.all.mb58.gz 114.17MB Kongsberg multibeam vendor format
0369_20140815_155639_melville.all.mb58.gz 156.54MB Kongsberg multibeam vendor format
0370_20140815_162639_melville.all.mb58.gz 183.23MB Kongsberg multibeam vendor format
0371_20140815_165639_melville.all.mb58.gz 240.81MB Kongsberg multibeam vendor format
0372_20140815_172639_melville.all.mb58.gz 246.09MB Kongsberg multibeam vendor format
0373_20140815_175639_melville.all.mb58.gz 248.10MB Kongsberg multibeam vendor format
0374_20140815_182638_melville.all.mb58.gz 245.05MB Kongsberg multibeam vendor format
0375_20140815_185638_melville.all.mb58.gz 241.29MB Kongsberg multibeam vendor format
0376_20140815_192638_melville.all.mb58.gz 225.22MB Kongsberg multibeam vendor format
0377_20140815_195638_melville.all.mb58.gz 238.97MB Kongsberg multibeam vendor format
0378_20140815_202638_melville.all.mb58.gz 237.43MB Kongsberg multibeam vendor format
0379_20140815_205638_melville.all.mb58.gz 234.62MB Kongsberg multibeam vendor format
0380_20140815_212637_melville.all.mb58.gz 214.82MB Kongsberg multibeam vendor format
0381_20140815_215637_melville.all.mb58.gz 217.01MB Kongsberg multibeam vendor format
0382_20140815_222637_melville.all.mb58.gz 160.60MB Kongsberg multibeam vendor format
0383_20140815_225640_melville.all.mb58.gz 112.42MB Kongsberg multibeam vendor format
0384_20140815_232640_melville.all.mb58.gz 88.66MB Kongsberg multibeam vendor format
0385_20140815_235641_melville.all.mb58.gz 71.61MB Kongsberg multibeam vendor format
0386_20140816_002640_melville.all.mb58.gz 61.61MB Kongsberg multibeam vendor format
0387_20140816_005639_melville.all.mb58.gz 59.77MB Kongsberg multibeam vendor format
0388_20140816_012640_melville.all.mb58.gz 59.58MB Kongsberg multibeam vendor format
0389_20140816_015639_melville.all.mb58.gz 58.23MB Kongsberg multibeam vendor format
0390_20140816_022640_melville.all.mb58.gz 62.71MB Kongsberg multibeam vendor format
0391_20140816_025639_melville.all.mb58.gz 70.83MB Kongsberg multibeam vendor format
0392_20140816_032640_melville.all.mb58.gz 82.60MB Kongsberg multibeam vendor format
0393_20140816_035639_melville.all.mb58.gz 97.88MB Kongsberg multibeam vendor format
0394_20140816_042638_melville.all.mb58.gz 85.20MB Kongsberg multibeam vendor format
0395_20140816_045639_melville.all.mb58.gz 73.91MB Kongsberg multibeam vendor format
0396_20140816_052638_melville.all.mb58.gz 72.13MB Kongsberg multibeam vendor format
0397_20140816_055639_melville.all.mb58.gz 71.84MB Kongsberg multibeam vendor format
0398_20140816_062638_melville.all.mb58.gz 69.95MB Kongsberg multibeam vendor format
0399_20140816_065638_melville.all.mb58.gz 69.18MB Kongsberg multibeam vendor format
0400_20140816_072639_melville.all.mb58.gz 69.32MB Kongsberg multibeam vendor format
0401_20140816_075637_melville.all.mb58.gz 68.60MB Kongsberg multibeam vendor format
0402_20140816_082638_melville.all.mb58.gz 67.78MB Kongsberg multibeam vendor format
0403_20140816_085637_melville.all.mb58.gz 61.78MB Kongsberg multibeam vendor format
0404_20140816_092639_melville.all.mb58.gz 57.44MB Kongsberg multibeam vendor format
0405_20140816_095639_melville.all.mb58.gz 55.88MB Kongsberg multibeam vendor format
0406_20140816_102638_melville.all.mb58.gz 54.68MB Kongsberg multibeam vendor format
0407_20140816_105639_melville.all.mb58.gz 53.98MB Kongsberg multibeam vendor format
0408_20140816_112639_melville.all.mb58.gz 54.28MB Kongsberg multibeam vendor format
0409_20140816_115636_melville.all.mb58.gz 54.48MB Kongsberg multibeam vendor format
0410_20140816_122637_melville.all.mb58.gz 54.52MB Kongsberg multibeam vendor format
0411_20140816_125635_melville.all.mb58.gz 54.84MB Kongsberg multibeam vendor format
0412_20140816_132637_melville.all.mb58.gz 54.06MB Kongsberg multibeam vendor format
0413_20140816_135639_melville.all.mb58.gz 54.54MB Kongsberg multibeam vendor format
0414_20140816_142637_melville.all.mb58.gz 54.77MB Kongsberg multibeam vendor format
0415_20140816_145636_melville.all.mb58.gz 54.81MB Kongsberg multibeam vendor format
0416_20140816_152638_melville.all.mb58.gz 53.60MB Kongsberg multibeam vendor format
0417_20140816_155637_melville.all.mb58.gz 53.06MB Kongsberg multibeam vendor format
0418_20140816_162637_melville.all.mb58.gz 53.52MB Kongsberg multibeam vendor format
0419_20140816_165637_melville.all.mb58.gz 50.78MB Kongsberg multibeam vendor format
0420_20140816_172635_melville.all.mb58.gz 53.04MB Kongsberg multibeam vendor format
0421_20140816_175634_melville.all.mb58.gz 55.85MB Kongsberg multibeam vendor format
0422_20140816_182636_melville.all.mb58.gz 56.75MB Kongsberg multibeam vendor format
0423_20140816_185738_melville.all.mb58.gz 54.32MB Kongsberg multibeam vendor format
0424_20140816_192737_melville.all.mb58.gz 54.11MB Kongsberg multibeam vendor format
0425_20140816_195734_melville.all.mb58.gz 53.61MB Kongsberg multibeam vendor format
0426_20140816_202733_melville.all.mb58.gz 52.94MB Kongsberg multibeam vendor format
0427_20140816_205734_melville.all.mb58.gz 52.25MB Kongsberg multibeam vendor format
0428_20140816_212733_melville.all.mb58.gz 52.27MB Kongsberg multibeam vendor format
0429_20140816_215737_melville.all.mb58.gz 50.44MB Kongsberg multibeam vendor format
0430_20140816_222732_melville.all.mb58.gz 50.98MB Kongsberg multibeam vendor format
0431_20140816_225732_melville.all.mb58.gz 49.93MB Kongsberg multibeam vendor format
0432_20140816_232732_melville.all.mb58.gz 50.29MB Kongsberg multibeam vendor format
0433_20140816_235734_melville.all.mb58.gz 48.37MB Kongsberg multibeam vendor format
0434_20140817_002738_melville.all.mb58.gz 50.68MB Kongsberg multibeam vendor format
0435_20140817_005734_melville.all.mb58.gz 53.01MB Kongsberg multibeam vendor format
0436_20140817_012733_melville.all.mb58.gz 54.06MB Kongsberg multibeam vendor format
0437_20140817_015732_melville.all.mb58.gz 53.89MB Kongsberg multibeam vendor format
0438_20140817_022735_melville.all.mb58.gz 54.20MB Kongsberg multibeam vendor format
0439_20140817_025732_melville.all.mb58.gz 53.71MB Kongsberg multibeam vendor format
0440_20140817_032733_melville.all.mb58.gz 52.92MB Kongsberg multibeam vendor format
0441_20140817_035733_melville.all.mb58.gz 51.88MB Kongsberg multibeam vendor format
0442_20140817_042730_melville.all.mb58.gz 51.82MB Kongsberg multibeam vendor format
0443_20140817_045735_melville.all.mb58.gz 52.80MB Kongsberg multibeam vendor format
0444_20140817_052731_melville.all.mb58.gz 53.79MB Kongsberg multibeam vendor format
0445_20140817_055730_melville.all.mb58.gz 53.56MB Kongsberg multibeam vendor format
0446_20140817_062733_melville.all.mb58.gz 53.68MB Kongsberg multibeam vendor format
0447_20140817_065733_melville.all.mb58.gz 51.85MB Kongsberg multibeam vendor format
0448_20140817_072733_melville.all.mb58.gz 52.62MB Kongsberg multibeam vendor format
0449_20140817_075734_melville.all.mb58.gz 53.75MB Kongsberg multibeam vendor format
0450_20140817_082734_melville.all.mb58.gz 53.09MB Kongsberg multibeam vendor format
0451_20140817_085731_melville.all.mb58.gz 53.80MB Kongsberg multibeam vendor format
0452_20140817_092733_melville.all.mb58.gz 53.12MB Kongsberg multibeam vendor format
0453_20140817_095729_melville.all.mb58.gz 53.19MB Kongsberg multibeam vendor format
0454_20140817_102732_melville.all.mb58.gz 53.38MB Kongsberg multibeam vendor format
0455_20140817_105731_melville.all.mb58.gz 53.57MB Kongsberg multibeam vendor format
0456_20140817_112732_melville.all.mb58.gz 53.30MB Kongsberg multibeam vendor format
0457_20140817_115729_melville.all.mb58.gz 53.61MB Kongsberg multibeam vendor format
0458_20140817_122731_melville.all.mb58.gz 53.42MB Kongsberg multibeam vendor format
0459_20140817_125730_melville.all.mb58.gz 53.47MB Kongsberg multibeam vendor format
0460_20140817_132729_melville.all.mb58.gz 53.60MB Kongsberg multibeam vendor format
0461_20140817_135727_melville.all.mb58.gz 52.99MB Kongsberg multibeam vendor format
0462_20140817_142730_melville.all.mb58.gz 53.58MB Kongsberg multibeam vendor format
0463_20140817_145730_melville.all.mb58.gz 54.11MB Kongsberg multibeam vendor format
0464_20140817_152730_melville.all.mb58.gz 53.92MB Kongsberg multibeam vendor format
0465_20140817_155729_melville.all.mb58.gz 53.81MB Kongsberg multibeam vendor format
0466_20140817_162727_melville.all.mb58.gz 53.63MB Kongsberg multibeam vendor format
0467_20140817_165729_melville.all.mb58.gz 53.38MB Kongsberg multibeam vendor format
0468_20140817_172728_melville.all.mb58.gz 53.20MB Kongsberg multibeam vendor format
0469_20140817_175728_melville.all.mb58.gz 53.93MB Kongsberg multibeam vendor format
0470_20140817_182726_melville.all.mb58.gz 53.93MB Kongsberg multibeam vendor format
0471_20140817_185727_melville.all.mb58.gz 53.80MB Kongsberg multibeam vendor format
0472_20140817_192729_melville.all.mb58.gz 52.67MB Kongsberg multibeam vendor format
0473_20140817_195725_melville.all.mb58.gz 54.08MB Kongsberg multibeam vendor format
0474_20140817_202726_melville.all.mb58.gz 54.33MB Kongsberg multibeam vendor format
0475_20140817_205727_melville.all.mb58.gz 53.74MB Kongsberg multibeam vendor format
0476_20140817_212726_melville.all.mb58.gz 53.12MB Kongsberg multibeam vendor format
0477_20140817_215725_melville.all.mb58.gz 53.22MB Kongsberg multibeam vendor format
0478_20140817_222726_melville.all.mb58.gz 53.01MB Kongsberg multibeam vendor format
0479_20140817_225728_melville.all.mb58.gz 52.79MB Kongsberg multibeam vendor format
0480_20140817_232726_melville.all.mb58.gz 52.77MB Kongsberg multibeam vendor format
0481_20140817_235729_melville.all.mb58.gz 52.75MB Kongsberg multibeam vendor format
0482_20140818_002725_melville.all.mb58.gz 54.16MB Kongsberg multibeam vendor format
0483_20140818_005727_melville.all.mb58.gz 52.40MB Kongsberg multibeam vendor format
0484_20140818_012727_melville.all.mb58.gz 53.03MB Kongsberg multibeam vendor format
0485_20140818_015727_melville.all.mb58.gz 53.14MB Kongsberg multibeam vendor format
0486_20140818_022726_melville.all.mb58.gz 53.64MB Kongsberg multibeam vendor format
0487_20140818_025723_melville.all.mb58.gz 53.69MB Kongsberg multibeam vendor format
0488_20140818_032722_melville.all.mb58.gz 53.38MB Kongsberg multibeam vendor format
0489_20140818_035724_melville.all.mb58.gz 52.97MB Kongsberg multibeam vendor format
0490_20140818_042724_melville.all.mb58.gz 52.75MB Kongsberg multibeam vendor format
0491_20140818_045726_melville.all.mb58.gz 51.48MB Kongsberg multibeam vendor format
0492_20140818_052726_melville.all.mb58.gz 52.48MB Kongsberg multibeam vendor format
0493_20140818_055723_melville.all.mb58.gz 53.79MB Kongsberg multibeam vendor format
0494_20140818_062725_melville.all.mb58.gz 53.55MB Kongsberg multibeam vendor format
0495_20140818_065722_melville.all.mb58.gz 53.00MB Kongsberg multibeam vendor format
0496_20140818_072724_melville.all.mb58.gz 52.13MB Kongsberg multibeam vendor format
0497_20140818_075724_melville.all.mb58.gz 51.42MB Kongsberg multibeam vendor format
0498_20140818_082723_melville.all.mb58.gz 51.62MB Kongsberg multibeam vendor format
0499_20140818_085725_melville.all.mb58.gz 51.40MB Kongsberg multibeam vendor format
0500_20140818_092722_melville.all.mb58.gz 52.49MB Kongsberg multibeam vendor format
0501_20140818_095721_melville.all.mb58.gz 52.41MB Kongsberg multibeam vendor format
0502_20140818_102721_melville.all.mb58.gz 52.48MB Kongsberg multibeam vendor format
0503_20140818_105723_melville.all.mb58.gz 52.45MB Kongsberg multibeam vendor format
0504_20140818_112724_melville.all.mb58.gz 51.28MB Kongsberg multibeam vendor format
0505_20140818_115722_melville.all.mb58.gz 52.69MB Kongsberg multibeam vendor format
0506_20140818_122722_melville.all.mb58.gz 51.25MB Kongsberg multibeam vendor format
0507_20140818_125719_melville.all.mb58.gz 51.62MB Kongsberg multibeam vendor format
0508_20140818_132719_melville.all.mb58.gz 50.58MB Kongsberg multibeam vendor format
0509_20140818_135721_melville.all.mb58.gz 52.43MB Kongsberg multibeam vendor format
0510_20140818_142722_melville.all.mb58.gz 51.53MB Kongsberg multibeam vendor format
0511_20140818_145721_melville.all.mb58.gz 51.26MB Kongsberg multibeam vendor format
0512_20140818_152721_melville.all.mb58.gz 50.11MB Kongsberg multibeam vendor format
0513_20140818_155719_melville.all.mb58.gz 52.13MB Kongsberg multibeam vendor format
0514_20140818_162719_melville.all.mb58.gz 51.18MB Kongsberg multibeam vendor format
0515_20140818_165719_melville.all.mb58.gz 52.01MB Kongsberg multibeam vendor format
0516_20140818_172720_melville.all.mb58.gz 49.21MB Kongsberg multibeam vendor format
0517_20140818_175719_melville.all.mb58.gz 51.61MB Kongsberg multibeam vendor format
0518_20140818_182722_melville.all.mb58.gz 50.87MB Kongsberg multibeam vendor format
0519_20140818_185718_melville.all.mb58.gz 51.40MB Kongsberg multibeam vendor format
0520_20140818_192722_melville.all.mb58.gz 49.51MB Kongsberg multibeam vendor format
0521_20140818_195717_melville.all.mb58.gz 49.69MB Kongsberg multibeam vendor format
0522_20140818_202716_melville.all.mb58.gz 48.18MB Kongsberg multibeam vendor format
0523_20140818_205719_melville.all.mb58.gz 48.45MB Kongsberg multibeam vendor format
0524_20140818_212719_melville.all.mb58.gz 49.34MB Kongsberg multibeam vendor format
0525_20140818_215717_melville.all.mb58.gz 50.84MB Kongsberg multibeam vendor format
0526_20140818_222719_melville.all.mb58.gz 48.91MB Kongsberg multibeam vendor format
0527_20140818_225721_melville.all.mb58.gz 49.31MB Kongsberg multibeam vendor format
0528_20140818_232717_melville.all.mb58.gz 50.92MB Kongsberg multibeam vendor format
0529_20140818_235716_melville.all.mb58.gz 48.19MB Kongsberg multibeam vendor format
0530_20140819_002717_melville.all.mb58.gz 51.15MB Kongsberg multibeam vendor format
0531_20140819_005715_melville.all.mb58.gz 51.95MB Kongsberg multibeam vendor format
0532_20140819_012718_melville.all.mb58.gz 51.62MB Kongsberg multibeam vendor format
0533_20140819_015718_melville.all.mb58.gz 51.25MB Kongsberg multibeam vendor format
0534_20140819_022714_melville.all.mb58.gz 51.54MB Kongsberg multibeam vendor format
0535_20140819_025717_melville.all.mb58.gz 49.43MB Kongsberg multibeam vendor format
0536_20140819_032714_melville.all.mb58.gz 51.63MB Kongsberg multibeam vendor format
0537_20140819_035715_melville.all.mb58.gz 50.97MB Kongsberg multibeam vendor format
0538_20140819_042718_melville.all.mb58.gz 49.34MB Kongsberg multibeam vendor format
0539_20140819_045715_melville.all.mb58.gz 49.81MB Kongsberg multibeam vendor format
0540_20140819_052718_melville.all.mb58.gz 48.46MB Kongsberg multibeam vendor format
0541_20140819_055715_melville.all.mb58.gz 48.53MB Kongsberg multibeam vendor format
0542_20140819_062718_melville.all.mb58.gz 48.03MB Kongsberg multibeam vendor format
0543_20140819_065713_melville.all.mb58.gz 48.44MB Kongsberg multibeam vendor format
0544_20140819_072717_melville.all.mb58.gz 49.43MB Kongsberg multibeam vendor format
0545_20140819_075715_melville.all.mb58.gz 49.65MB Kongsberg multibeam vendor format
0546_20140819_082716_melville.all.mb58.gz 50.26MB Kongsberg multibeam vendor format
0547_20140819_085713_melville.all.mb58.gz 51.90MB Kongsberg multibeam vendor format
0548_20140819_092713_melville.all.mb58.gz 52.22MB Kongsberg multibeam vendor format
0549_20140819_095715_melville.all.mb58.gz 51.82MB Kongsberg multibeam vendor format
0550_20140819_102717_melville.all.mb58.gz 51.51MB Kongsberg multibeam vendor format
0551_20140819_105713_melville.all.mb58.gz 51.31MB Kongsberg multibeam vendor format
0552_20140819_112714_melville.all.mb58.gz 50.89MB Kongsberg multibeam vendor format
0553_20140819_115715_melville.all.mb58.gz 42.72MB Kongsberg multibeam vendor format
0554_20140819_122717_melville.all.mb58.gz 42.36MB Kongsberg multibeam vendor format
0555_20140819_125716_melville.all.mb58.gz 41.93MB Kongsberg multibeam vendor format
0556_20140819_132713_melville.all.mb58.gz 42.69MB Kongsberg multibeam vendor format
0557_20140819_135717_melville.all.mb58.gz 42.28MB Kongsberg multibeam vendor format
0558_20140819_142713_melville.all.mb58.gz 41.92MB Kongsberg multibeam vendor format
0559_20140819_145714_melville.all.mb58.gz 42.45MB Kongsberg multibeam vendor format
0560_20140819_152711_melville.all.mb58.gz 41.32MB Kongsberg multibeam vendor format
0561_20140819_155712_melville.all.mb58.gz 41.27MB Kongsberg multibeam vendor format
0562_20140819_162717_melville.all.mb58.gz 39.13MB Kongsberg multibeam vendor format
0563_20140819_165710_melville.all.mb58.gz 43.36MB Kongsberg multibeam vendor format
0564_20140819_172714_melville.all.mb58.gz 42.71MB Kongsberg multibeam vendor format
0565_20140819_175713_melville.all.mb58.gz 38.46MB Kongsberg multibeam vendor format
0566_20140819_182712_melville.all.mb58.gz 39.63MB Kongsberg multibeam vendor format
0567_20140819_185712_melville.all.mb58.gz 38.70MB Kongsberg multibeam vendor format
0568_20140819_192712_melville.all.mb58.gz 37.24MB Kongsberg multibeam vendor format
0569_20140819_195710_melville.all.mb58.gz 38.39MB Kongsberg multibeam vendor format
0570_20140819_202710_melville.all.mb58.gz 41.48MB Kongsberg multibeam vendor format
0571_20140819_205709_melville.all.mb58.gz 47.98MB Kongsberg multibeam vendor format
0572_20140819_212710_melville.all.mb58.gz 50.93MB Kongsberg multibeam vendor format
0573_20140819_215708_melville.all.mb58.gz 50.96MB Kongsberg multibeam vendor format
0574_20140819_222709_melville.all.mb58.gz 50.95MB Kongsberg multibeam vendor format
0575_20140819_225713_melville.all.mb58.gz 50.52MB Kongsberg multibeam vendor format
0576_20140819_232708_melville.all.mb58.gz 49.89MB Kongsberg multibeam vendor format
0577_20140819_235707_melville.all.mb58.gz 49.65MB Kongsberg multibeam vendor format
0578_20140820_002708_melville.all.mb58.gz 47.49MB Kongsberg multibeam vendor format
0579_20140820_005709_melville.all.mb58.gz 44.53MB Kongsberg multibeam vendor format
0580_20140820_012711_melville.all.mb58.gz 46.56MB Kongsberg multibeam vendor format
0581_20140820_015708_melville.all.mb58.gz 46.82MB Kongsberg multibeam vendor format
0582_20140820_022711_melville.all.mb58.gz 45.04MB Kongsberg multibeam vendor format
0583_20140820_025712_melville.all.mb58.gz 48.81MB Kongsberg multibeam vendor format
0584_20140820_032708_melville.all.mb58.gz 47.44MB Kongsberg multibeam vendor format
0585_20140820_035710_melville.all.mb58.gz 42.57MB Kongsberg multibeam vendor format
0586_20140820_042709_melville.all.mb58.gz 39.76MB Kongsberg multibeam vendor format
0587_20140820_045711_melville.all.mb58.gz 37.94MB Kongsberg multibeam vendor format
0588_20140820_052709_melville.all.mb58.gz 38.37MB Kongsberg multibeam vendor format
0589_20140820_055717_melville.all.mb58.gz 35.40MB Kongsberg multibeam vendor format
0590_20140820_062715_melville.all.mb58.gz 37.99MB Kongsberg multibeam vendor format
0591_20140820_065711_melville.all.mb58.gz 38.51MB Kongsberg multibeam vendor format
0592_20140820_072713_melville.all.mb58.gz 39.93MB Kongsberg multibeam vendor format
0593_20140820_075709_melville.all.mb58.gz 38.99MB Kongsberg multibeam vendor format
0594_20140820_082707_melville.all.mb58.gz 36.70MB Kongsberg multibeam vendor format
0595_20140820_085711_melville.all.mb58.gz 40.22MB Kongsberg multibeam vendor format
0596_20140820_092708_melville.all.mb58.gz 37.44MB Kongsberg multibeam vendor format
0597_20140820_095704_melville.all.mb58.gz 39.61MB Kongsberg multibeam vendor format
0598_20140820_102703_melville.all.mb58.gz 39.30MB Kongsberg multibeam vendor format
0599_20140820_105704_melville.all.mb58.gz 37.89MB Kongsberg multibeam vendor format
0600_20140820_112705_melville.all.mb58.gz 37.44MB Kongsberg multibeam vendor format
0601_20140820_115710_melville.all.mb58.gz 38.73MB Kongsberg multibeam vendor format
0602_20140820_122710_melville.all.mb58.gz 37.93MB Kongsberg multibeam vendor format
0603_20140820_125711_melville.all.mb58.gz 39.07MB Kongsberg multibeam vendor format
0604_20140820_132703_melville.all.mb58.gz 43.58MB Kongsberg multibeam vendor format
0605_20140820_135706_melville.all.mb58.gz 41.52MB Kongsberg multibeam vendor format
0606_20140820_142707_melville.all.mb58.gz 43.15MB Kongsberg multibeam vendor format
0607_20140820_145708_melville.all.mb58.gz 38.12MB Kongsberg multibeam vendor format
0608_20140820_152706_melville.all.mb58.gz 38.34MB Kongsberg multibeam vendor format
0609_20140820_155707_melville.all.mb58.gz 39.14MB Kongsberg multibeam vendor format
0610_20140820_162708_melville.all.mb58.gz 39.25MB Kongsberg multibeam vendor format
0611_20140820_165702_melville.all.mb58.gz 43.91MB Kongsberg multibeam vendor format
0612_20140820_172703_melville.all.mb58.gz 43.73MB Kongsberg multibeam vendor format
0613_20140820_175701_melville.all.mb58.gz 41.14MB Kongsberg multibeam vendor format
0614_20140820_182706_melville.all.mb58.gz 121.14MB Kongsberg multibeam vendor format
0615_20140820_195704_melville.all.mb58.gz 39.75MB Kongsberg multibeam vendor format
0616_20140820_202706_melville.all.mb58.gz 39.29MB Kongsberg multibeam vendor format
0617_20140820_205706_melville.all.mb58.gz 39.78MB Kongsberg multibeam vendor format
0618_20140820_212705_melville.all.mb58.gz 39.07MB Kongsberg multibeam vendor format
0619_20140820_215707_melville.all.mb58.gz 37.00MB Kongsberg multibeam vendor format
0620_20140820_222704_melville.all.mb58.gz 36.96MB Kongsberg multibeam vendor format
0621_20140820_225704_melville.all.mb58.gz 37.16MB Kongsberg multibeam vendor format
0622_20140820_232707_melville.all.mb58.gz 36.80MB Kongsberg multibeam vendor format
0623_20140820_235706_melville.all.mb58.gz 36.98MB Kongsberg multibeam vendor format
0624_20140821_002707_melville.all.mb58.gz 37.11MB Kongsberg multibeam vendor format
0625_20140821_005711_melville.all.mb58.gz 36.32MB Kongsberg multibeam vendor format
0626_20140821_012713_melville.all.mb58.gz 36.33MB Kongsberg multibeam vendor format
0627_20140821_015713_melville.all.mb58.gz 37.74MB Kongsberg multibeam vendor format
0628_20140821_022706_melville.all.mb58.gz 40.21MB Kongsberg multibeam vendor format
0629_20140821_025708_melville.all.mb58.gz 37.92MB Kongsberg multibeam vendor format
0630_20140821_032708_melville.all.mb58.gz 36.49MB Kongsberg multibeam vendor format
0631_20140821_035707_melville.all.mb58.gz 36.04MB Kongsberg multibeam vendor format
0632_20140821_042711_melville.all.mb58.gz 43.78MB Kongsberg multibeam vendor format
0633_20140821_045704_melville.all.mb58.gz 37.14MB Kongsberg multibeam vendor format
0634_20140821_052704_melville.all.mb58.gz 36.04MB Kongsberg multibeam vendor format
0635_20140821_055706_melville.all.mb58.gz 39.91MB Kongsberg multibeam vendor format
0636_20140821_062702_melville.all.mb58.gz 42.91MB Kongsberg multibeam vendor format
0637_20140821_065707_melville.all.mb58.gz 35.56MB Kongsberg multibeam vendor format
0638_20140821_072707_melville.all.mb58.gz 34.93MB Kongsberg multibeam vendor format
0639_20140821_075702_melville.all.mb58.gz 36.25MB Kongsberg multibeam vendor format
0640_20140821_082701_melville.all.mb58.gz 36.88MB Kongsberg multibeam vendor format
0641_20140821_085701_melville.all.mb58.gz 38.54MB Kongsberg multibeam vendor format
0642_20140821_092704_melville.all.mb58.gz 38.78MB Kongsberg multibeam vendor format
0643_20140821_095704_melville.all.mb58.gz 36.93MB Kongsberg multibeam vendor format
0644_20140821_102707_melville.all.mb58.gz 36.03MB Kongsberg multibeam vendor format
0645_20140821_105709_melville.all.mb58.gz 36.41MB Kongsberg multibeam vendor format
0646_20140821_112704_melville.all.mb58.gz 34.72MB Kongsberg multibeam vendor format
0647_20140821_115659_melville.all.mb58.gz 33.57MB Kongsberg multibeam vendor format
0648_20140821_122714_melville.all.mb58.gz 28.58MB Kongsberg multibeam vendor format
0649_20140821_125711_melville.all.mb58.gz 32.29MB Kongsberg multibeam vendor format
0650_20140821_132710_melville.all.mb58.gz 36.98MB Kongsberg multibeam vendor format
0651_20140821_135709_melville.all.mb58.gz 35.49MB Kongsberg multibeam vendor format
0652_20140821_142712_melville.all.mb58.gz 33.46MB Kongsberg multibeam vendor format
0653_20140821_145710_melville.all.mb58.gz 34.06MB Kongsberg multibeam vendor format
0654_20140821_152700_melville.all.mb58.gz 35.08MB Kongsberg multibeam vendor format
0655_20140821_155659_melville.all.mb58.gz 36.12MB Kongsberg multibeam vendor format
0656_20140821_162708_melville.all.mb58.gz 35.72MB Kongsberg multibeam vendor format
0657_20140821_165700_melville.all.mb58.gz 37.07MB Kongsberg multibeam vendor format
0658_20140821_172704_melville.all.mb58.gz 32.51MB Kongsberg multibeam vendor format
0659_20140821_175712_melville.all.mb58.gz 27.75MB Kongsberg multibeam vendor format
0660_20140821_182707_melville.all.mb58.gz 36.14MB Kongsberg multibeam vendor format
0661_20140821_185658_melville.all.mb58.gz 37.34MB Kongsberg multibeam vendor format
0662_20140821_192705_melville.all.mb58.gz 36.91MB Kongsberg multibeam vendor format
0663_20140821_195710_melville.all.mb58.gz 35.87MB Kongsberg multibeam vendor format
0664_20140821_202658_melville.all.mb58.gz 35.88MB Kongsberg multibeam vendor format
0665_20140821_205657_melville.all.mb58.gz 31.37MB Kongsberg multibeam vendor format
0666_20140821_212710_melville.all.mb58.gz 27.88MB Kongsberg multibeam vendor format
0667_20140821_215700_melville.all.mb58.gz 27.94MB Kongsberg multibeam vendor format
0668_20140821_222701_melville.all.mb58.gz 27.46MB Kongsberg multibeam vendor format
0669_20140821_225659_melville.all.mb58.gz 27.46MB Kongsberg multibeam vendor format
0670_20140821_232705_melville.all.mb58.gz 26.72MB Kongsberg multibeam vendor format
0671_20140821_235702_melville.all.mb58.gz 27.49MB Kongsberg multibeam vendor format
0672_20140822_002704_melville.all.mb58.gz 28.07MB Kongsberg multibeam vendor format
0673_20140822_005706_melville.all.mb58.gz 26.17MB Kongsberg multibeam vendor format
0674_20140822_012703_melville.all.mb58.gz 26.46MB Kongsberg multibeam vendor format
0675_20140822_015708_melville.all.mb58.gz 33.54MB Kongsberg multibeam vendor format
0676_20140822_022707_melville.all.mb58.gz 35.12MB Kongsberg multibeam vendor format
0677_20140822_025659_melville.all.mb58.gz 34.91MB Kongsberg multibeam vendor format
0678_20140822_032659_melville.all.mb58.gz 34.54MB Kongsberg multibeam vendor format
0679_20140822_035653_melville.all.mb58.gz 35.86MB Kongsberg multibeam vendor format
0680_20140822_042701_melville.all.mb58.gz 35.80MB Kongsberg multibeam vendor format
0681_20140822_045659_melville.all.mb58.gz 33.29MB Kongsberg multibeam vendor format
0682_20140822_052709_melville.all.mb58.gz 29.65MB Kongsberg multibeam vendor format
0683_20140822_055704_melville.all.mb58.gz 27.76MB Kongsberg multibeam vendor format
0684_20140822_062657_melville.all.mb58.gz 27.87MB Kongsberg multibeam vendor format
0685_20140822_065653_melville.all.mb58.gz 27.34MB Kongsberg multibeam vendor format
0686_20140822_072658_melville.all.mb58.gz 27.08MB Kongsberg multibeam vendor format
0687_20140822_075701_melville.all.mb58.gz 27.05MB Kongsberg multibeam vendor format
0688_20140822_082655_melville.all.mb58.gz 27.46MB Kongsberg multibeam vendor format
0689_20140822_085702_melville.all.mb58.gz 27.03MB Kongsberg multibeam vendor format
0690_20140822_092656_melville.all.mb58.gz 27.59MB Kongsberg multibeam vendor format
0691_20140822_095657_melville.all.mb58.gz 34.73MB Kongsberg multibeam vendor format
0692_20140822_102702_melville.all.mb58.gz 34.88MB Kongsberg multibeam vendor format
0693_20140822_105700_melville.all.mb58.gz 35.01MB Kongsberg multibeam vendor format
0694_20140822_112652_melville.all.mb58.gz 34.80MB Kongsberg multibeam vendor format
0695_20140822_115705_melville.all.mb58.gz 34.61MB Kongsberg multibeam vendor format
0696_20140822_122700_melville.all.mb58.gz 35.08MB Kongsberg multibeam vendor format
0697_20140822_125654_melville.all.mb58.gz 34.60MB Kongsberg multibeam vendor format
0698_20140822_132658_melville.all.mb58.gz 33.50MB Kongsberg multibeam vendor format
0699_20140822_135655_melville.all.mb58.gz 34.98MB Kongsberg multibeam vendor format
0700_20140822_142651_melville.all.mb58.gz 34.16MB Kongsberg multibeam vendor format
0701_20140822_145651_melville.all.mb58.gz 36.31MB Kongsberg multibeam vendor format
0702_20140822_152654_melville.all.mb58.gz 35.29MB Kongsberg multibeam vendor format
0703_20140822_155649_melville.all.mb58.gz 35.42MB Kongsberg multibeam vendor format
0704_20140822_162649_melville.all.mb58.gz 36.59MB Kongsberg multibeam vendor format
0705_20140822_165655_melville.all.mb58.gz 35.89MB Kongsberg multibeam vendor format
0706_20140822_172651_melville.all.mb58.gz 37.08MB Kongsberg multibeam vendor format
0707_20140822_175700_melville.all.mb58.gz 35.32MB Kongsberg multibeam vendor format
0708_20140822_182648_melville.all.mb58.gz 34.48MB Kongsberg multibeam vendor format
0709_20140822_185653_melville.all.mb58.gz 34.31MB Kongsberg multibeam vendor format
0710_20140822_192655_melville.all.mb58.gz 34.85MB Kongsberg multibeam vendor format
0711_20140822_195700_melville.all.mb58.gz 34.31MB Kongsberg multibeam vendor format
0712_20140822_202651_melville.all.mb58.gz 35.18MB Kongsberg multibeam vendor format
0713_20140822_205656_melville.all.mb58.gz 36.21MB Kongsberg multibeam vendor format
0714_20140822_212655_melville.all.mb58.gz 37.41MB Kongsberg multibeam vendor format
0715_20140822_215655_melville.all.mb58.gz 35.23MB Kongsberg multibeam vendor format
0716_20140822_222657_melville.all.mb58.gz 34.25MB Kongsberg multibeam vendor format
0717_20140822_225657_melville.all.mb58.gz 35.76MB Kongsberg multibeam vendor format
0718_20140822_232650_melville.all.mb58.gz 34.63MB Kongsberg multibeam vendor format
0719_20140822_235657_melville.all.mb58.gz 33.22MB Kongsberg multibeam vendor format
0720_20140823_002654_melville.all.mb58.gz 34.23MB Kongsberg multibeam vendor format
0721_20140823_005658_melville.all.mb58.gz 34.19MB Kongsberg multibeam vendor format
0722_20140823_012647_melville.all.mb58.gz 35.49MB Kongsberg multibeam vendor format
0723_20140823_015658_melville.all.mb58.gz 34.89MB Kongsberg multibeam vendor format
0724_20140823_022654_melville.all.mb58.gz 37.46MB Kongsberg multibeam vendor format
0725_20140823_025649_melville.all.mb58.gz 37.72MB Kongsberg multibeam vendor format
0726_20140823_032652_melville.all.mb58.gz 37.10MB Kongsberg multibeam vendor format
0727_20140823_035651_melville.all.mb58.gz 37.64MB Kongsberg multibeam vendor format
0728_20140823_042649_melville.all.mb58.gz 37.83MB Kongsberg multibeam vendor format
0729_20140823_045647_melville.all.mb58.gz 37.62MB Kongsberg multibeam vendor format
0730_20140823_052653_melville.all.mb58.gz 38.05MB Kongsberg multibeam vendor format
0731_20140823_055655_melville.all.mb58.gz 37.60MB Kongsberg multibeam vendor format
0732_20140823_062655_melville.all.mb58.gz 36.81MB Kongsberg multibeam vendor format
0733_20140823_065643_melville.all.mb58.gz 35.64MB Kongsberg multibeam vendor format
0734_20140823_072656_melville.all.mb58.gz 36.03MB Kongsberg multibeam vendor format
0735_20140823_075652_melville.all.mb58.gz 37.90MB Kongsberg multibeam vendor format
0736_20140823_082649_melville.all.mb58.gz 36.68MB Kongsberg multibeam vendor format
0737_20140823_085653_melville.all.mb58.gz 35.88MB Kongsberg multibeam vendor format
0738_20140823_092645_melville.all.mb58.gz 35.66MB Kongsberg multibeam vendor format
0739_20140823_095648_melville.all.mb58.gz 36.88MB Kongsberg multibeam vendor format
0740_20140823_102654_melville.all.mb58.gz 37.03MB Kongsberg multibeam vendor format
0741_20140823_105648_melville.all.mb58.gz 37.71MB Kongsberg multibeam vendor format
0742_20140823_112643_melville.all.mb58.gz 36.88MB Kongsberg multibeam vendor format
0743_20140823_115652_melville.all.mb58.gz 37.58MB Kongsberg multibeam vendor format
0744_20140823_122643_melville.all.mb58.gz 35.18MB Kongsberg multibeam vendor format
0745_20140823_125642_melville.all.mb58.gz 36.22MB Kongsberg multibeam vendor format
0746_20140823_132652_melville.all.mb58.gz 35.44MB Kongsberg multibeam vendor format
0747_20140823_135648_melville.all.mb58.gz 35.82MB Kongsberg multibeam vendor format
0748_20140823_142642_melville.all.mb58.gz 35.96MB Kongsberg multibeam vendor format
0749_20140823_145652_melville.all.mb58.gz 36.61MB Kongsberg multibeam vendor format
0750_20140823_152642_melville.all.mb58.gz 37.99MB Kongsberg multibeam vendor format
0751_20140823_155648_melville.all.mb58.gz 37.02MB Kongsberg multibeam vendor format
0752_20140823_162650_melville.all.mb58.gz 37.95MB Kongsberg multibeam vendor format
0753_20140823_165651_melville.all.mb58.gz 37.45MB Kongsberg multibeam vendor format
0754_20140823_172650_melville.all.mb58.gz 36.37MB Kongsberg multibeam vendor format
0755_20140823_175640_melville.all.mb58.gz 37.18MB Kongsberg multibeam vendor format
0756_20140823_182651_melville.all.mb58.gz 35.79MB Kongsberg multibeam vendor format
0757_20140823_185646_melville.all.mb58.gz 30.63MB Kongsberg multibeam vendor format
0759_20140823_192433_melville.all.mb58.gz 2.09MB Kongsberg multibeam vendor format
0761_20140823_193616_melville.all.mb58.gz 35.99MB Kongsberg multibeam vendor format
0762_20140823_200622_melville.all.mb58.gz 36.86MB Kongsberg multibeam vendor format
0763_20140823_203616_melville.all.mb58.gz 37.14MB Kongsberg multibeam vendor format
0764_20140823_210612_melville.all.mb58.gz 37.08MB Kongsberg multibeam vendor format
0765_20140823_213619_melville.all.mb58.gz 37.32MB Kongsberg multibeam vendor format
0766_20140823_220614_melville.all.mb58.gz 37.18MB Kongsberg multibeam vendor format
0767_20140823_223621_melville.all.mb58.gz 35.73MB Kongsberg multibeam vendor format
0768_20140823_230610_melville.all.mb58.gz 36.86MB Kongsberg multibeam vendor format
0769_20140823_233621_melville.all.mb58.gz 38.05MB Kongsberg multibeam vendor format
0770_20140824_000617_melville.all.mb58.gz 37.55MB Kongsberg multibeam vendor format
0771_20140824_003611_melville.all.mb58.gz 38.36MB Kongsberg multibeam vendor format
0772_20140824_010618_melville.all.mb58.gz 37.03MB Kongsberg multibeam vendor format
0773_20140824_013611_melville.all.mb58.gz 41.09MB Kongsberg multibeam vendor format
0774_20140824_020615_melville.all.mb58.gz 41.20MB Kongsberg multibeam vendor format
0775_20140824_023612_melville.all.mb58.gz 40.06MB Kongsberg multibeam vendor format
0776_20140824_030617_melville.all.mb58.gz 39.01MB Kongsberg multibeam vendor format
0777_20140824_033613_melville.all.mb58.gz 40.54MB Kongsberg multibeam vendor format
0778_20140824_040614_melville.all.mb58.gz 38.96MB Kongsberg multibeam vendor format
0779_20140824_043616_melville.all.mb58.gz 37.83MB Kongsberg multibeam vendor format
0780_20140824_050612_melville.all.mb58.gz 38.04MB Kongsberg multibeam vendor format
0781_20140824_053607_melville.all.mb58.gz 37.49MB Kongsberg multibeam vendor format
0782_20140824_060609_melville.all.mb58.gz 39.23MB Kongsberg multibeam vendor format
0783_20140824_063616_melville.all.mb58.gz 36.23MB Kongsberg multibeam vendor format
0784_20140824_070611_melville.all.mb58.gz 35.64MB Kongsberg multibeam vendor format
0785_20140824_073609_melville.all.mb58.gz 35.73MB Kongsberg multibeam vendor format
0786_20140824_080610_melville.all.mb58.gz 37.50MB Kongsberg multibeam vendor format
0787_20140824_083606_melville.all.mb58.gz 41.28MB Kongsberg multibeam vendor format
0788_20140824_090613_melville.all.mb58.gz 41.43MB Kongsberg multibeam vendor format
0789_20140824_093613_melville.all.mb58.gz 40.94MB Kongsberg multibeam vendor format
0790_20140824_100607_melville.all.mb58.gz 41.20MB Kongsberg multibeam vendor format
0791_20140824_103609_melville.all.mb58.gz 41.24MB Kongsberg multibeam vendor format
0792_20140824_110607_melville.all.mb58.gz 43.24MB Kongsberg multibeam vendor format
0793_20140824_113614_melville.all.mb58.gz 41.51MB Kongsberg multibeam vendor format
0794_20140824_120610_melville.all.mb58.gz 44.12MB Kongsberg multibeam vendor format
0795_20140824_123606_melville.all.mb58.gz 45.19MB Kongsberg multibeam vendor format
0796_20140824_130605_melville.all.mb58.gz 43.31MB Kongsberg multibeam vendor format
0797_20140824_133609_melville.all.mb58.gz 41.39MB Kongsberg multibeam vendor format
0798_20140824_140609_melville.all.mb58.gz 44.04MB Kongsberg multibeam vendor format
0799_20140824_143608_melville.all.mb58.gz 44.06MB Kongsberg multibeam vendor format
0800_20140824_150611_melville.all.mb58.gz 42.96MB Kongsberg multibeam vendor format
0801_20140824_153611_melville.all.mb58.gz 42.87MB Kongsberg multibeam vendor format
0802_20140824_160607_melville.all.mb58.gz 43.92MB Kongsberg multibeam vendor format
0803_20140824_163609_melville.all.mb58.gz 42.27MB Kongsberg multibeam vendor format
0804_20140824_170609_melville.all.mb58.gz 44.05MB Kongsberg multibeam vendor format
0805_20140824_173611_melville.all.mb58.gz 44.12MB Kongsberg multibeam vendor format
0806_20140824_180606_melville.all.mb58.gz 42.83MB Kongsberg multibeam vendor format
0807_20140824_183606_melville.all.mb58.gz 41.66MB Kongsberg multibeam vendor format
0808_20140824_190607_melville.all.mb58.gz 43.93MB Kongsberg multibeam vendor format
0809_20140824_193603_melville.all.mb58.gz 42.13MB Kongsberg multibeam vendor format
0810_20140824_200602_melville.all.mb58.gz 44.26MB Kongsberg multibeam vendor format
0811_20140824_203605_melville.all.mb58.gz 45.60MB Kongsberg multibeam vendor format
0812_20140824_210609_melville.all.mb58.gz 42.35MB Kongsberg multibeam vendor format
0813_20140824_213607_melville.all.mb58.gz 41.92MB Kongsberg multibeam vendor format
0814_20140824_220605_melville.all.mb58.gz 40.41MB Kongsberg multibeam vendor format
0815_20140824_223609_melville.all.mb58.gz 38.97MB Kongsberg multibeam vendor format
0816_20140824_230602_melville.all.mb58.gz 39.35MB Kongsberg multibeam vendor format
0817_20140824_233605_melville.all.mb58.gz 42.13MB Kongsberg multibeam vendor format
0818_20140825_000608_melville.all.mb58.gz 44.89MB Kongsberg multibeam vendor format
0819_20140825_003602_melville.all.mb58.gz 43.56MB Kongsberg multibeam vendor format
0820_20140825_010606_melville.all.mb58.gz 41.50MB Kongsberg multibeam vendor format
0821_20140825_013605_melville.all.mb58.gz 41.74MB Kongsberg multibeam vendor format
0822_20140825_020601_melville.all.mb58.gz 42.05MB Kongsberg multibeam vendor format
0823_20140825_023607_melville.all.mb58.gz 43.08MB Kongsberg multibeam vendor format
0824_20140825_030603_melville.all.mb58.gz 45.16MB Kongsberg multibeam vendor format
0825_20140825_033600_melville.all.mb58.gz 44.30MB Kongsberg multibeam vendor format
0826_20140825_040604_melville.all.mb58.gz 42.50MB Kongsberg multibeam vendor format
0827_20140825_043605_melville.all.mb58.gz 43.15MB Kongsberg multibeam vendor format
0828_20140825_050605_melville.all.mb58.gz 42.72MB Kongsberg multibeam vendor format
0829_20140825_053559_melville.all.mb58.gz 43.50MB Kongsberg multibeam vendor format
0830_20140825_060602_melville.all.mb58.gz 41.75MB Kongsberg multibeam vendor format
0831_20140825_063607_melville.all.mb58.gz 40.17MB Kongsberg multibeam vendor format
0832_20140825_070605_melville.all.mb58.gz 42.86MB Kongsberg multibeam vendor format
0833_20140825_073602_melville.all.mb58.gz 43.24MB Kongsberg multibeam vendor format
0834_20140825_080601_melville.all.mb58.gz 41.65MB Kongsberg multibeam vendor format
0835_20140825_083604_melville.all.mb58.gz 41.97MB Kongsberg multibeam vendor format
0836_20140825_090601_melville.all.mb58.gz 44.32MB Kongsberg multibeam vendor format
0837_20140825_093603_melville.all.mb58.gz 44.67MB Kongsberg multibeam vendor format
0838_20140825_100601_melville.all.mb58.gz 40.64MB Kongsberg multibeam vendor format
0839_20140825_103606_melville.all.mb58.gz 41.16MB Kongsberg multibeam vendor format
0840_20140825_110558_melville.all.mb58.gz 41.72MB Kongsberg multibeam vendor format
0841_20140825_113602_melville.all.mb58.gz 42.14MB Kongsberg multibeam vendor format
0842_20140825_120558_melville.all.mb58.gz 23.66MB Kongsberg multibeam vendor format
0845_20140825_123153_melville.all.mb58.gz 42.23MB Kongsberg multibeam vendor format
0846_20140825_130157_melville.all.mb58.gz 41.57MB Kongsberg multibeam vendor format
0847_20140825_133155_melville.all.mb58.gz 37.52MB Kongsberg multibeam vendor format
0848_20140825_140157_melville.all.mb58.gz 41.74MB Kongsberg multibeam vendor format
0849_20140825_143149_melville.all.mb58.gz 42.53MB Kongsberg multibeam vendor format
0850_20140825_150155_melville.all.mb58.gz 42.74MB Kongsberg multibeam vendor format
0851_20140825_153149_melville.all.mb58.gz 42.47MB Kongsberg multibeam vendor format
0852_20140825_160152_melville.all.mb58.gz 41.78MB Kongsberg multibeam vendor format
0853_20140825_163151_melville.all.mb58.gz 41.33MB Kongsberg multibeam vendor format
0854_20140825_170149_melville.all.mb58.gz 44.55MB Kongsberg multibeam vendor format
0855_20140825_173151_melville.all.mb58.gz 41.87MB Kongsberg multibeam vendor format
0856_20140825_180155_melville.all.mb58.gz 35.97MB Kongsberg multibeam vendor format
0857_20140825_183154_melville.all.mb58.gz 35.10MB Kongsberg multibeam vendor format
0858_20140825_190153_melville.all.mb58.gz 34.07MB Kongsberg multibeam vendor format
0859_20140825_193153_melville.all.mb58.gz 27.39MB Kongsberg multibeam vendor format
0860_20140825_200156_melville.all.mb58.gz 26.76MB Kongsberg multibeam vendor format
0861_20140825_203147_melville.all.mb58.gz 26.87MB Kongsberg multibeam vendor format
0862_20140825_210157_melville.all.mb58.gz 26.22MB Kongsberg multibeam vendor format
0863_20140825_213153_melville.all.mb58.gz 26.58MB Kongsberg multibeam vendor format
0864_20140825_220204_melville.all.mb58.gz 26.01MB Kongsberg multibeam vendor format
0865_20140825_223156_melville.all.mb58.gz 26.08MB Kongsberg multibeam vendor format
0866_20140825_230152_melville.all.mb58.gz 26.30MB Kongsberg multibeam vendor format
0867_20140825_233202_melville.all.mb58.gz 25.86MB Kongsberg multibeam vendor format
0868_20140826_000203_melville.all.mb58.gz 25.81MB Kongsberg multibeam vendor format
0869_20140826_003146_melville.all.mb58.gz 26.08MB Kongsberg multibeam vendor format
0870_20140826_010157_melville.all.mb58.gz 26.13MB Kongsberg multibeam vendor format
0871_20140826_013204_melville.all.mb58.gz 25.90MB Kongsberg multibeam vendor format
0872_20140826_020151_melville.all.mb58.gz 25.76MB Kongsberg multibeam vendor format
0873_20140826_023145_melville.all.mb58.gz 26.04MB Kongsberg multibeam vendor format
0874_20140826_030203_melville.all.mb58.gz 25.65MB Kongsberg multibeam vendor format
0875_20140826_033147_melville.all.mb58.gz 26.00MB Kongsberg multibeam vendor format
0876_20140826_040157_melville.all.mb58.gz 26.00MB Kongsberg multibeam vendor format
0877_20140826_043203_melville.all.mb58.gz 25.79MB Kongsberg multibeam vendor format
0878_20140826_050202_melville.all.mb58.gz 25.83MB Kongsberg multibeam vendor format
0879_20140826_053155_melville.all.mb58.gz 25.83MB Kongsberg multibeam vendor format
0880_20140826_060151_melville.all.mb58.gz 25.89MB Kongsberg multibeam vendor format
0881_20140826_063144_melville.all.mb58.gz 26.06MB Kongsberg multibeam vendor format
0882_20140826_070200_melville.all.mb58.gz 25.45MB Kongsberg multibeam vendor format
0883_20140826_073146_melville.all.mb58.gz 26.06MB Kongsberg multibeam vendor format
0884_20140826_080202_melville.all.mb58.gz 25.66MB Kongsberg multibeam vendor format
0885_20140826_083148_melville.all.mb58.gz 25.91MB Kongsberg multibeam vendor format
0886_20140826_090205_melville.all.mb58.gz 25.43MB Kongsberg multibeam vendor format
0887_20140826_093152_melville.all.mb58.gz 25.64MB Kongsberg multibeam vendor format
0888_20140826_100151_melville.all.mb58.gz 25.65MB Kongsberg multibeam vendor format
0889_20140826_103145_melville.all.mb58.gz 25.68MB Kongsberg multibeam vendor format
0890_20140826_110145_melville.all.mb58.gz 25.93MB Kongsberg multibeam vendor format
0891_20140826_113146_melville.all.mb58.gz 26.15MB Kongsberg multibeam vendor format
0892_20140826_120155_melville.all.mb58.gz 25.73MB Kongsberg multibeam vendor format
0893_20140826_123147_melville.all.mb58.gz 25.95MB Kongsberg multibeam vendor format
0894_20140826_130148_melville.all.mb58.gz 25.89MB Kongsberg multibeam vendor format
0895_20140826_133159_melville.all.mb58.gz 25.45MB Kongsberg multibeam vendor format
0896_20140826_140145_melville.all.mb58.gz 25.67MB Kongsberg multibeam vendor format
0897_20140826_143154_melville.all.mb58.gz 25.69MB Kongsberg multibeam vendor format
0898_20140826_150156_melville.all.mb58.gz 25.89MB Kongsberg multibeam vendor format
0899_20140826_153202_melville.all.mb58.gz 25.71MB Kongsberg multibeam vendor format
0900_20140826_160200_melville.all.mb58.gz 25.39MB Kongsberg multibeam vendor format
0901_20140826_163145_melville.all.mb58.gz 25.77MB Kongsberg multibeam vendor format
0902_20140826_170150_melville.all.mb58.gz 25.92MB Kongsberg multibeam vendor format
0903_20140826_173201_melville.all.mb58.gz 25.37MB Kongsberg multibeam vendor format
0904_20140826_180142_melville.all.mb58.gz 26.08MB Kongsberg multibeam vendor format
0905_20140826_183146_melville.all.mb58.gz 25.78MB Kongsberg multibeam vendor format
0906_20140826_190149_melville.all.mb58.gz 25.71MB Kongsberg multibeam vendor format
0907_20140826_193141_melville.all.mb58.gz 26.04MB Kongsberg multibeam vendor format
0908_20140826_200146_melville.all.mb58.gz 25.76MB Kongsberg multibeam vendor format
0909_20140826_203148_melville.all.mb58.gz 25.35MB Kongsberg multibeam vendor format
0910_20140826_210149_melville.all.mb58.gz 25.80MB Kongsberg multibeam vendor format
0911_20140826_213157_melville.all.mb58.gz 25.64MB Kongsberg multibeam vendor format
0912_20140826_220150_melville.all.mb58.gz 25.66MB Kongsberg multibeam vendor format
0913_20140826_223151_melville.all.mb58.gz 25.53MB Kongsberg multibeam vendor format
0914_20140826_230153_melville.all.mb58.gz 25.27MB Kongsberg multibeam vendor format
0915_20140826_233150_melville.all.mb58.gz 25.45MB Kongsberg multibeam vendor format
0916_20140827_000147_melville.all.mb58.gz 25.37MB Kongsberg multibeam vendor format
0917_20140827_003142_melville.all.mb58.gz 25.55MB Kongsberg multibeam vendor format
0918_20140827_010148_melville.all.mb58.gz 25.55MB Kongsberg multibeam vendor format
0919_20140827_013157_melville.all.mb58.gz 25.36MB Kongsberg multibeam vendor format
0920_20140827_020201_melville.all.mb58.gz 24.96MB Kongsberg multibeam vendor format
0921_20140827_023139_melville.all.mb58.gz 25.39MB Kongsberg multibeam vendor format
0922_20140827_030146_melville.all.mb58.gz 25.38MB Kongsberg multibeam vendor format
0923_20140827_033142_melville.all.mb58.gz 25.49MB Kongsberg multibeam vendor format
0924_20140827_040144_melville.all.mb58.gz 25.46MB Kongsberg multibeam vendor format
0925_20140827_043140_melville.all.mb58.gz 25.87MB Kongsberg multibeam vendor format
0926_20140827_050149_melville.all.mb58.gz 25.64MB Kongsberg multibeam vendor format
0927_20140827_053140_melville.all.mb58.gz 25.85MB Kongsberg multibeam vendor format
0928_20140827_060146_melville.all.mb58.gz 25.76MB Kongsberg multibeam vendor format
0929_20140827_063136_melville.all.mb58.gz 26.09MB Kongsberg multibeam vendor format
0930_20140827_070152_melville.all.mb58.gz 25.35MB Kongsberg multibeam vendor format
0931_20140827_073143_melville.all.mb58.gz 25.33MB Kongsberg multibeam vendor format
0932_20140827_080152_melville.all.mb58.gz 25.29MB Kongsberg multibeam vendor format
0933_20140827_083137_melville.all.mb58.gz 25.90MB Kongsberg multibeam vendor format
0934_20140827_090144_melville.all.mb58.gz 25.60MB Kongsberg multibeam vendor format
0935_20140827_093139_melville.all.mb58.gz 26.08MB Kongsberg multibeam vendor format
0936_20140827_100146_melville.all.mb58.gz 25.91MB Kongsberg multibeam vendor format
0937_20140827_103146_melville.all.mb58.gz 25.76MB Kongsberg multibeam vendor format
0938_20140827_110135_melville.all.mb58.gz 25.92MB Kongsberg multibeam vendor format
0939_20140827_113153_melville.all.mb58.gz 25.76MB Kongsberg multibeam vendor format
0940_20140827_120141_melville.all.mb58.gz 25.93MB Kongsberg multibeam vendor format
0941_20140827_123143_melville.all.mb58.gz 25.71MB Kongsberg multibeam vendor format
0942_20140827_130139_melville.all.mb58.gz 25.81MB Kongsberg multibeam vendor format
0943_20140827_133142_melville.all.mb58.gz 25.81MB Kongsberg multibeam vendor format
0944_20140827_140137_melville.all.mb58.gz 26.00MB Kongsberg multibeam vendor format
0945_20140827_143149_melville.all.mb58.gz 25.94MB Kongsberg multibeam vendor format
0946_20140827_150152_melville.all.mb58.gz 25.67MB Kongsberg multibeam vendor format
0947_20140827_153144_melville.all.mb58.gz 25.70MB Kongsberg multibeam vendor format
0948_20140827_160142_melville.all.mb58.gz 25.63MB Kongsberg multibeam vendor format
0949_20140827_163145_melville.all.mb58.gz 25.66MB Kongsberg multibeam vendor format
0950_20140827_170143_melville.all.mb58.gz 25.83MB Kongsberg multibeam vendor format
0951_20140827_173147_melville.all.mb58.gz 25.70MB Kongsberg multibeam vendor format
0952_20140827_180142_melville.all.mb58.gz 25.65MB Kongsberg multibeam vendor format
0953_20140827_183139_melville.all.mb58.gz 25.86MB Kongsberg multibeam vendor format
0954_20140827_190147_melville.all.mb58.gz 26.33MB Kongsberg multibeam vendor format
0955_20140827_193147_melville.all.mb58.gz 25.32MB Kongsberg multibeam vendor format
0956_20140827_200134_melville.all.mb58.gz 26.48MB Kongsberg multibeam vendor format
0957_20140827_203143_melville.all.mb58.gz 26.88MB Kongsberg multibeam vendor format
0958_20140827_210146_melville.all.mb58.gz 25.39MB Kongsberg multibeam vendor format
0959_20140827_213131_melville.all.mb58.gz 25.90MB Kongsberg multibeam vendor format
0960_20140827_220146_melville.all.mb58.gz 25.56MB Kongsberg multibeam vendor format
0961_20140827_223142_melville.all.mb58.gz 25.67MB Kongsberg multibeam vendor format
0962_20140827_230146_melville.all.mb58.gz 25.57MB Kongsberg multibeam vendor format
0963_20140827_233143_melville.all.mb58.gz 25.75MB Kongsberg multibeam vendor format
0964_20140828_000147_melville.all.mb58.gz 25.71MB Kongsberg multibeam vendor format
0965_20140828_003150_melville.all.mb58.gz 25.54MB Kongsberg multibeam vendor format
0966_20140828_010128_melville.all.mb58.gz 26.11MB Kongsberg multibeam vendor format
0967_20140828_013142_melville.all.mb58.gz 26.04MB Kongsberg multibeam vendor format
0968_20140828_020148_melville.all.mb58.gz 25.90MB Kongsberg multibeam vendor format
0969_20140828_023143_melville.all.mb58.gz 25.74MB Kongsberg multibeam vendor format
0970_20140828_030134_melville.all.mb58.gz 25.88MB Kongsberg multibeam vendor format
0971_20140828_033146_melville.all.mb58.gz 25.76MB Kongsberg multibeam vendor format
0972_20140828_040140_melville.all.mb58.gz 25.75MB Kongsberg multibeam vendor format
0973_20140828_043135_melville.all.mb58.gz 25.84MB Kongsberg multibeam vendor format
0974_20140828_050132_melville.all.mb58.gz 25.81MB Kongsberg multibeam vendor format
0975_20140828_053143_melville.all.mb58.gz 25.59MB Kongsberg multibeam vendor format
0976_20140828_060132_melville.all.mb58.gz 25.83MB Kongsberg multibeam vendor format
0977_20140828_063128_melville.all.mb58.gz 25.81MB Kongsberg multibeam vendor format
0978_20140828_070133_melville.all.mb58.gz 25.56MB Kongsberg multibeam vendor format
0979_20140828_073130_melville.all.mb58.gz 25.66MB Kongsberg multibeam vendor format
0980_20140828_080141_melville.all.mb58.gz 25.75MB Kongsberg multibeam vendor format
0981_20140828_083147_melville.all.mb58.gz 25.62MB Kongsberg multibeam vendor format
0982_20140828_090134_melville.all.mb58.gz 25.95MB Kongsberg multibeam vendor format
0983_20140828_093138_melville.all.mb58.gz 25.92MB Kongsberg multibeam vendor format
0984_20140828_100136_melville.all.mb58.gz 26.05MB Kongsberg multibeam vendor format
0985_20140828_103133_melville.all.mb58.gz 26.00MB Kongsberg multibeam vendor format
0986_20140828_110131_melville.all.mb58.gz 26.18MB Kongsberg multibeam vendor format
0987_20140828_113139_melville.all.mb58.gz 26.13MB Kongsberg multibeam vendor format
0988_20140828_120144_melville.all.mb58.gz 25.82MB Kongsberg multibeam vendor format
0989_20140828_123132_melville.all.mb58.gz 26.05MB Kongsberg multibeam vendor format
0990_20140828_130133_melville.all.mb58.gz 26.04MB Kongsberg multibeam vendor format
0991_20140828_133134_melville.all.mb58.gz 25.82MB Kongsberg multibeam vendor format
0992_20140828_140124_melville.all.mb58.gz 25.81MB Kongsberg multibeam vendor format
0993_20140828_143127_melville.all.mb58.gz 25.73MB Kongsberg multibeam vendor format
0994_20140828_150124_melville.all.mb58.gz 26.23MB Kongsberg multibeam vendor format
0995_20140828_153133_melville.all.mb58.gz 26.11MB Kongsberg multibeam vendor format
0996_20140828_160142_melville.all.mb58.gz 25.67MB Kongsberg multibeam vendor format
0997_20140828_163124_melville.all.mb58.gz 26.04MB Kongsberg multibeam vendor format
0998_20140828_170134_melville.all.mb58.gz 25.74MB Kongsberg multibeam vendor format
0999_20140828_173130_melville.all.mb58.gz 25.73MB Kongsberg multibeam vendor format
1000_20140828_180128_melville.all.mb58.gz 26.15MB Kongsberg multibeam vendor format
1001_20140828_183140_melville.all.mb58.gz 26.03MB Kongsberg multibeam vendor format
1002_20140828_190140_melville.all.mb58.gz 25.84MB Kongsberg multibeam vendor format
1003_20140828_193132_melville.all.mb58.gz 25.64MB Kongsberg multibeam vendor format
1004_20140828_200123_melville.all.mb58.gz 25.95MB Kongsberg multibeam vendor format
1005_20140828_203123_melville.all.mb58.gz 26.36MB Kongsberg multibeam vendor format
1006_20140828_210142_melville.all.mb58.gz 25.74MB Kongsberg multibeam vendor format
1007_20140828_213140_melville.all.mb58.gz 25.82MB Kongsberg multibeam vendor format
1008_20140828_220130_melville.all.mb58.gz 25.75MB Kongsberg multibeam vendor format
1009_20140828_223124_melville.all.mb58.gz 26.02MB Kongsberg multibeam vendor format
1010_20140828_230132_melville.all.mb58.gz 26.16MB Kongsberg multibeam vendor format
1011_20140828_233140_melville.all.mb58.gz 25.76MB Kongsberg multibeam vendor format
1012_20140829_000135_melville.all.mb58.gz 25.62MB Kongsberg multibeam vendor format
1013_20140829_003130_melville.all.mb58.gz 25.67MB Kongsberg multibeam vendor format
1014_20140829_010136_melville.all.mb58.gz 25.32MB Kongsberg multibeam vendor format
1015_20140829_013125_melville.all.mb58.gz 25.86MB Kongsberg multibeam vendor format
1016_20140829_020143_melville.all.mb58.gz 25.43MB Kongsberg multibeam vendor format
1017_20140829_023140_melville.all.mb58.gz 25.37MB Kongsberg multibeam vendor format
1018_20140829_030128_melville.all.mb58.gz 25.47MB Kongsberg multibeam vendor format
1019_20140829_033132_melville.all.mb58.gz 25.97MB Kongsberg multibeam vendor format
1020_20140829_040137_melville.all.mb58.gz 25.70MB Kongsberg multibeam vendor format
1021_20140829_043120_melville.all.mb58.gz 26.17MB Kongsberg multibeam vendor format
1022_20140829_050124_melville.all.mb58.gz 25.96MB Kongsberg multibeam vendor format
1023_20140829_053122_melville.all.mb58.gz 26.24MB Kongsberg multibeam vendor format
1024_20140829_060137_melville.all.mb58.gz 25.92MB Kongsberg multibeam vendor format
1025_20140829_063130_melville.all.mb58.gz 25.99MB Kongsberg multibeam vendor format
1026_20140829_070138_melville.all.mb58.gz 25.90MB Kongsberg multibeam vendor format
1027_20140829_073126_melville.all.mb58.gz 26.30MB Kongsberg multibeam vendor format
1028_20140829_080134_melville.all.mb58.gz 26.18MB Kongsberg multibeam vendor format
1029_20140829_083132_melville.all.mb58.gz 25.81MB Kongsberg multibeam vendor format
1030_20140829_090118_melville.all.mb58.gz 25.83MB Kongsberg multibeam vendor format
1031_20140829_093126_melville.all.mb58.gz 25.67MB Kongsberg multibeam vendor format
1032_20140829_100132_melville.all.mb58.gz 25.66MB Kongsberg multibeam vendor format
1033_20140829_103135_melville.all.mb58.gz 26.06MB Kongsberg multibeam vendor format
1034_20140829_110135_melville.all.mb58.gz 25.71MB Kongsberg multibeam vendor format
1035_20140829_113117_melville.all.mb58.gz 26.43MB Kongsberg multibeam vendor format
1036_20140829_120134_melville.all.mb58.gz 26.17MB Kongsberg multibeam vendor format
1037_20140829_123138_melville.all.mb58.gz 25.85MB Kongsberg multibeam vendor format
1038_20140829_130121_melville.all.mb58.gz 26.04MB Kongsberg multibeam vendor format
1039_20140829_133121_melville.all.mb58.gz 26.35MB Kongsberg multibeam vendor format
1040_20140829_140134_melville.all.mb58.gz 25.79MB Kongsberg multibeam vendor format
1041_20140829_143127_melville.all.mb58.gz 25.68MB Kongsberg multibeam vendor format
1042_20140829_150117_melville.all.mb58.gz 26.14MB Kongsberg multibeam vendor format
1043_20140829_153119_melville.all.mb58.gz 26.20MB Kongsberg multibeam vendor format
1044_20140829_160135_melville.all.mb58.gz 25.92MB Kongsberg multibeam vendor format
1045_20140829_163133_melville.all.mb58.gz 25.78MB Kongsberg multibeam vendor format
1046_20140829_170123_melville.all.mb58.gz 26.05MB Kongsberg multibeam vendor format
1047_20140829_173131_melville.all.mb58.gz 25.78MB Kongsberg multibeam vendor format
1048_20140829_180123_melville.all.mb58.gz 26.10MB Kongsberg multibeam vendor format
1049_20140829_183123_melville.all.mb58.gz 25.83MB Kongsberg multibeam vendor format
1050_20140829_190120_melville.all.mb58.gz 25.91MB Kongsberg multibeam vendor format
1051_20140829_193125_melville.all.mb58.gz 25.77MB Kongsberg multibeam vendor format
1052_20140829_200129_melville.all.mb58.gz 25.71MB Kongsberg multibeam vendor format
1053_20140829_203128_melville.all.mb58.gz 25.48MB Kongsberg multibeam vendor format
1054_20140829_210115_melville.all.mb58.gz 25.68MB Kongsberg multibeam vendor format
1055_20140829_213121_melville.all.mb58.gz 25.83MB Kongsberg multibeam vendor format
1056_20140829_220128_melville.all.mb58.gz 25.79MB Kongsberg multibeam vendor format
1057_20140829_223133_melville.all.mb58.gz 25.66MB Kongsberg multibeam vendor format
1058_20140829_230127_melville.all.mb58.gz 25.82MB Kongsberg multibeam vendor format
1059_20140829_233133_melville.all.mb58.gz 25.73MB Kongsberg multibeam vendor format
1060_20140830_000127_melville.all.mb58.gz 25.78MB Kongsberg multibeam vendor format
1061_20140830_003121_melville.all.mb58.gz 25.73MB Kongsberg multibeam vendor format
1062_20140830_010118_melville.all.mb58.gz 25.60MB Kongsberg multibeam vendor format
1063_20140830_013116_melville.all.mb58.gz 25.76MB Kongsberg multibeam vendor format
1064_20140830_020126_melville.all.mb58.gz 25.25MB Kongsberg multibeam vendor format
1065_20140830_023120_melville.all.mb58.gz 25.70MB Kongsberg multibeam vendor format
1066_20140830_030118_melville.all.mb58.gz 25.69MB Kongsberg multibeam vendor format
1067_20140830_033117_melville.all.mb58.gz 25.63MB Kongsberg multibeam vendor format
1068_20140830_040113_melville.all.mb58.gz 26.19MB Kongsberg multibeam vendor format
1069_20140830_043124_melville.all.mb58.gz 25.40MB Kongsberg multibeam vendor format
1070_20140830_050115_melville.all.mb58.gz 26.02MB Kongsberg multibeam vendor format
1071_20140830_053124_melville.all.mb58.gz 25.65MB Kongsberg multibeam vendor format
1072_20140830_060128_melville.all.mb58.gz 25.70MB Kongsberg multibeam vendor format
1073_20140830_063121_melville.all.mb58.gz 25.53MB Kongsberg multibeam vendor format
1074_20140830_070123_melville.all.mb58.gz 25.38MB Kongsberg multibeam vendor format
1075_20140830_073121_melville.all.mb58.gz 25.19MB Kongsberg multibeam vendor format
1076_20140830_080111_melville.all.mb58.gz 25.06MB Kongsberg multibeam vendor format
1077_20140830_083116_melville.all.mb58.gz 25.50MB Kongsberg multibeam vendor format
1078_20140830_090130_melville.all.mb58.gz 25.19MB Kongsberg multibeam vendor format
1079_20140830_093113_melville.all.mb58.gz 25.54MB Kongsberg multibeam vendor format
1080_20140830_100118_melville.all.mb58.gz 25.47MB Kongsberg multibeam vendor format
1081_20140830_103116_melville.all.mb58.gz 25.54MB Kongsberg multibeam vendor format
1082_20140830_110123_melville.all.mb58.gz 25.62MB Kongsberg multibeam vendor format
1083_20140830_113124_melville.all.mb58.gz 25.65MB Kongsberg multibeam vendor format
1084_20140830_120120_melville.all.mb58.gz 25.62MB Kongsberg multibeam vendor format
1085_20140830_123124_melville.all.mb58.gz 25.28MB Kongsberg multibeam vendor format
1086_20140830_130113_melville.all.mb58.gz 25.41MB Kongsberg multibeam vendor format
1087_20140830_133113_melville.all.mb58.gz 25.50MB Kongsberg multibeam vendor format
1088_20140830_140110_melville.all.mb58.gz 25.85MB Kongsberg multibeam vendor format
1089_20140830_143117_melville.all.mb58.gz 25.56MB Kongsberg multibeam vendor format
1090_20140830_150117_melville.all.mb58.gz 25.71MB Kongsberg multibeam vendor format
1091_20140830_153122_melville.all.mb58.gz 25.54MB Kongsberg multibeam vendor format
1092_20140830_160111_melville.all.mb58.gz 26.04MB Kongsberg multibeam vendor format
1093_20140830_163114_melville.all.mb58.gz 25.77MB Kongsberg multibeam vendor format
1094_20140830_170107_melville.all.mb58.gz 25.48MB Kongsberg multibeam vendor format
1095_20140830_173108_melville.all.mb58.gz 26.00MB Kongsberg multibeam vendor format
1096_20140830_180129_melville.all.mb58.gz 25.45MB Kongsberg multibeam vendor format
1097_20140830_183124_melville.all.mb58.gz 25.54MB Kongsberg multibeam vendor format
1098_20140830_190114_melville.all.mb58.gz 25.92MB Kongsberg multibeam vendor format
1099_20140830_193124_melville.all.mb58.gz 25.66MB Kongsberg multibeam vendor format
1100_20140830_200106_melville.all.mb58.gz 25.65MB Kongsberg multibeam vendor format
1101_20140830_203112_melville.all.mb58.gz 25.40MB Kongsberg multibeam vendor format
1102_20140830_210111_melville.all.mb58.gz 25.17MB Kongsberg multibeam vendor format
1103_20140830_213122_melville.all.mb58.gz 25.28MB Kongsberg multibeam vendor format
1104_20140830_220120_melville.all.mb58.gz 24.35MB Kongsberg multibeam vendor format
1105_20140830_223112_melville.all.mb58.gz 25.22MB Kongsberg multibeam vendor format
1106_20140830_230116_melville.all.mb58.gz 25.38MB Kongsberg multibeam vendor format
1107_20140830_233109_melville.all.mb58.gz 25.26MB Kongsberg multibeam vendor format
1108_20140831_000108_melville.all.mb58.gz 25.54MB Kongsberg multibeam vendor format
1109_20140831_003118_melville.all.mb58.gz 25.78MB Kongsberg multibeam vendor format
1110_20140831_010122_melville.all.mb58.gz 25.75MB Kongsberg multibeam vendor format
1111_20140831_013118_melville.all.mb58.gz 25.42MB Kongsberg multibeam vendor format
1112_20140831_020117_melville.all.mb58.gz 25.51MB Kongsberg multibeam vendor format
1113_20140831_023104_melville.all.mb58.gz 25.94MB Kongsberg multibeam vendor format
1114_20140831_030116_melville.all.mb58.gz 26.25MB Kongsberg multibeam vendor format
1115_20140831_033112_melville.all.mb58.gz 26.32MB Kongsberg multibeam vendor format
1116_20140831_040113_melville.all.mb58.gz 25.85MB Kongsberg multibeam vendor format
1117_20140831_043108_melville.all.mb58.gz 25.60MB Kongsberg multibeam vendor format
1118_20140831_050107_melville.all.mb58.gz 25.50MB Kongsberg multibeam vendor format
1119_20140831_053117_melville.all.mb58.gz 25.63MB Kongsberg multibeam vendor format
1120_20140831_060115_melville.all.mb58.gz 25.76MB Kongsberg multibeam vendor format
1121_20140831_063109_melville.all.mb58.gz 25.76MB Kongsberg multibeam vendor format
1122_20140831_070104_melville.all.mb58.gz 25.67MB Kongsberg multibeam vendor format
1123_20140831_073104_melville.all.mb58.gz 25.85MB Kongsberg multibeam vendor format
1124_20140831_080112_melville.all.mb58.gz 25.80MB Kongsberg multibeam vendor format
1125_20140831_083112_melville.all.mb58.gz 25.56MB Kongsberg multibeam vendor format
1126_20140831_090120_melville.all.mb58.gz 25.56MB Kongsberg multibeam vendor format
1127_20140831_093117_melville.all.mb58.gz 25.64MB Kongsberg multibeam vendor format
1128_20140831_100119_melville.all.mb58.gz 25.81MB Kongsberg multibeam vendor format
1129_20140831_103104_melville.all.mb58.gz 25.58MB Kongsberg multibeam vendor format
1130_20140831_110102_melville.all.mb58.gz 25.85MB Kongsberg multibeam vendor format
1131_20140831_113104_melville.all.mb58.gz 26.04MB Kongsberg multibeam vendor format
1132_20140831_120116_melville.all.mb58.gz 25.72MB Kongsberg multibeam vendor format
1133_20140831_123107_melville.all.mb58.gz 26.04MB Kongsberg multibeam vendor format
1134_20140831_130102_melville.all.mb58.gz 25.92MB Kongsberg multibeam vendor format
1135_20140831_133102_melville.all.mb58.gz 25.57MB Kongsberg multibeam vendor format
1136_20140831_140106_melville.all.mb58.gz 25.12MB Kongsberg multibeam vendor format
1137_20140831_143107_melville.all.mb58.gz 25.34MB Kongsberg multibeam vendor format
1138_20140831_150101_melville.all.mb58.gz 25.88MB Kongsberg multibeam vendor format
1139_20140831_153100_melville.all.mb58.gz 26.13MB Kongsberg multibeam vendor format
1140_20140831_160111_melville.all.mb58.gz 25.84MB Kongsberg multibeam vendor format
1141_20140831_163106_melville.all.mb58.gz 25.89MB Kongsberg multibeam vendor format
1142_20140831_170115_melville.all.mb58.gz 25.84MB Kongsberg multibeam vendor format
1143_20140831_173108_melville.all.mb58.gz 25.78MB Kongsberg multibeam vendor format
1144_20140831_180110_melville.all.mb58.gz 25.76MB Kongsberg multibeam vendor format
1145_20140831_183105_melville.all.mb58.gz 25.85MB Kongsberg multibeam vendor format
1146_20140831_190109_melville.all.mb58.gz 25.92MB Kongsberg multibeam vendor format
1147_20140831_193103_melville.all.mb58.gz 26.02MB Kongsberg multibeam vendor format
1148_20140831_200115_melville.all.mb58.gz 25.64MB Kongsberg multibeam vendor format
1149_20140831_203110_melville.all.mb58.gz 26.26MB Kongsberg multibeam vendor format
1150_20140831_210101_melville.all.mb58.gz 26.19MB Kongsberg multibeam vendor format
1151_20140831_213058_melville.all.mb58.gz 26.15MB Kongsberg multibeam vendor format
1152_20140831_220102_melville.all.mb58.gz 27.21MB Kongsberg multibeam vendor format
1153_20140831_223207_melville.all.mb58.gz 26.08MB Kongsberg multibeam vendor format
1154_20140831_230204_melville.all.mb58.gz 26.25MB Kongsberg multibeam vendor format
1155_20140831_233213_melville.all.mb58.gz 25.61MB Kongsberg multibeam vendor format
1156_20140901_000216_melville.all.mb58.gz 25.47MB Kongsberg multibeam vendor format
1157_20140901_003207_melville.all.mb58.gz 25.50MB Kongsberg multibeam vendor format
1158_20140901_010202_melville.all.mb58.gz 25.79MB Kongsberg multibeam vendor format
1159_20140901_013218_melville.all.mb58.gz 25.56MB Kongsberg multibeam vendor format
1160_20140901_020216_melville.all.mb58.gz 25.31MB Kongsberg multibeam vendor format
1161_20140901_023213_melville.all.mb58.gz 25.31MB Kongsberg multibeam vendor format
1162_20140901_030158_melville.all.mb58.gz 25.46MB Kongsberg multibeam vendor format
1163_20140901_033212_melville.all.mb58.gz 25.45MB Kongsberg multibeam vendor format
1164_20140901_040205_melville.all.mb58.gz 25.98MB Kongsberg multibeam vendor format
1165_20140901_043206_melville.all.mb58.gz 25.93MB Kongsberg multibeam vendor format
1166_20140901_050209_melville.all.mb58.gz 25.68MB Kongsberg multibeam vendor format
1167_20140901_053213_melville.all.mb58.gz 25.74MB Kongsberg multibeam vendor format
1168_20140901_060156_melville.all.mb58.gz 25.64MB Kongsberg multibeam vendor format
1169_20140901_063214_melville.all.mb58.gz 26.63MB Kongsberg multibeam vendor format
1170_20140901_070155_melville.all.mb58.gz 26.92MB Kongsberg multibeam vendor format
1171_20140901_073211_melville.all.mb58.gz 26.00MB Kongsberg multibeam vendor format
1172_20140901_080155_melville.all.mb58.gz 26.20MB Kongsberg multibeam vendor format
1173_20140901_083205_melville.all.mb58.gz 25.73MB Kongsberg multibeam vendor format
1174_20140901_090158_melville.all.mb58.gz 25.64MB Kongsberg multibeam vendor format
1175_20140901_093156_melville.all.mb58.gz 25.78MB Kongsberg multibeam vendor format
1176_20140901_100155_melville.all.mb58.gz 25.84MB Kongsberg multibeam vendor format
1177_20140901_103204_melville.all.mb58.gz 25.91MB Kongsberg multibeam vendor format
1178_20140901_110204_melville.all.mb58.gz 26.08MB Kongsberg multibeam vendor format
1179_20140901_113207_melville.all.mb58.gz 26.07MB Kongsberg multibeam vendor format
1180_20140901_120158_melville.all.mb58.gz 25.80MB Kongsberg multibeam vendor format
1181_20140901_123205_melville.all.mb58.gz 24.97MB Kongsberg multibeam vendor format
1182_20140901_130200_melville.all.mb58.gz 25.06MB Kongsberg multibeam vendor format
1183_20140901_133201_melville.all.mb58.gz 25.11MB Kongsberg multibeam vendor format
1184_20140901_140202_melville.all.mb58.gz 25.64MB Kongsberg multibeam vendor format
1185_20140901_143201_melville.all.mb58.gz 25.72MB Kongsberg multibeam vendor format
1186_20140901_150156_melville.all.mb58.gz 26.25MB Kongsberg multibeam vendor format
1187_20140901_153153_melville.all.mb58.gz 26.21MB Kongsberg multibeam vendor format
1188_20140901_160202_melville.all.mb58.gz 26.35MB Kongsberg multibeam vendor format
1189_20140901_163201_melville.all.mb58.gz 26.10MB Kongsberg multibeam vendor format
1190_20140901_170202_melville.all.mb58.gz 25.83MB Kongsberg multibeam vendor format
1191_20140901_173151_melville.all.mb58.gz 26.33MB Kongsberg multibeam vendor format
1192_20140901_180159_melville.all.mb58.gz 26.30MB Kongsberg multibeam vendor format
1193_20140901_183203_melville.all.mb58.gz 25.76MB Kongsberg multibeam vendor format
1194_20140901_190153_melville.all.mb58.gz 25.68MB Kongsberg multibeam vendor format
1195_20140901_193151_melville.all.mb58.gz 26.09MB Kongsberg multibeam vendor format
1196_20140901_200159_melville.all.mb58.gz 25.66MB Kongsberg multibeam vendor format
1197_20140901_203152_melville.all.mb58.gz 25.51MB Kongsberg multibeam vendor format
1198_20140901_210201_melville.all.mb58.gz 25.53MB Kongsberg multibeam vendor format
1199_20140901_213202_melville.all.mb58.gz 25.82MB Kongsberg multibeam vendor format
1200_20140901_220211_melville.all.mb58.gz 25.74MB Kongsberg multibeam vendor format
1201_20140901_223208_melville.all.mb58.gz 25.42MB Kongsberg multibeam vendor format
1202_20140901_230155_melville.all.mb58.gz 25.94MB Kongsberg multibeam vendor format
1203_20140901_233157_melville.all.mb58.gz 25.83MB Kongsberg multibeam vendor format
1204_20140902_000158_melville.all.mb58.gz 25.96MB Kongsberg multibeam vendor format
1205_20140902_003152_melville.all.mb58.gz 26.04MB Kongsberg multibeam vendor format
1206_20140902_010210_melville.all.mb58.gz 25.96MB Kongsberg multibeam vendor format
1207_20140902_013150_melville.all.mb58.gz 25.94MB Kongsberg multibeam vendor format
1208_20140902_020158_melville.all.mb58.gz 25.53MB Kongsberg multibeam vendor format
1209_20140902_023200_melville.all.mb58.gz 25.38MB Kongsberg multibeam vendor format
1210_20140902_030148_melville.all.mb58.gz 25.65MB Kongsberg multibeam vendor format
1211_20140902_033151_melville.all.mb58.gz 26.19MB Kongsberg multibeam vendor format
1212_20140902_040202_melville.all.mb58.gz 25.69MB Kongsberg multibeam vendor format
1213_20140902_043150_melville.all.mb58.gz 26.17MB Kongsberg multibeam vendor format
1214_20140902_050201_melville.all.mb58.gz 26.22MB Kongsberg multibeam vendor format
1215_20140902_053159_melville.all.mb58.gz 25.69MB Kongsberg multibeam vendor format
1216_20140902_060200_melville.all.mb58.gz 25.51MB Kongsberg multibeam vendor format
1217_20140902_063149_melville.all.mb58.gz 25.74MB Kongsberg multibeam vendor format
1218_20140902_070147_melville.all.mb58.gz 25.73MB Kongsberg multibeam vendor format
1219_20140902_073148_melville.all.mb58.gz 26.16MB Kongsberg multibeam vendor format
1220_20140902_080204_melville.all.mb58.gz 25.86MB Kongsberg multibeam vendor format
1221_20140902_083203_melville.all.mb58.gz 25.71MB Kongsberg multibeam vendor format
1222_20140902_090150_melville.all.mb58.gz 25.96MB Kongsberg multibeam vendor format
1223_20140902_093148_melville.all.mb58.gz 26.06MB Kongsberg multibeam vendor format
1224_20140902_100153_melville.all.mb58.gz 25.98MB Kongsberg multibeam vendor format
1225_20140902_103203_melville.all.mb58.gz 25.96MB Kongsberg multibeam vendor format
1226_20140902_110145_melville.all.mb58.gz 26.29MB Kongsberg multibeam vendor format
1227_20140902_113155_melville.all.mb58.gz 25.89MB Kongsberg multibeam vendor format
1228_20140902_120203_melville.all.mb58.gz 26.34MB Kongsberg multibeam vendor format
1229_20140902_123203_melville.all.mb58.gz 25.79MB Kongsberg multibeam vendor format
1230_20140902_130147_melville.all.mb58.gz 25.96MB Kongsberg multibeam vendor format
1231_20140902_133148_melville.all.mb58.gz 25.90MB Kongsberg multibeam vendor format
1232_20140902_140143_melville.all.mb58.gz 26.02MB Kongsberg multibeam vendor format
1233_20140902_143145_melville.all.mb58.gz 26.24MB Kongsberg multibeam vendor format
1234_20140902_150159_melville.all.mb58.gz 26.06MB Kongsberg multibeam vendor format
1235_20140902_153203_melville.all.mb58.gz 26.00MB Kongsberg multibeam vendor format
1236_20140902_160200_melville.all.mb58.gz 25.80MB Kongsberg multibeam vendor format
1237_20140902_163147_melville.all.mb58.gz 26.07MB Kongsberg multibeam vendor format
1238_20140902_170154_melville.all.mb58.gz 26.03MB Kongsberg multibeam vendor format
1239_20140902_173151_melville.all.mb58.gz 26.07MB Kongsberg multibeam vendor format
1240_20140902_180154_melville.all.mb58.gz 25.96MB Kongsberg multibeam vendor format
1241_20140902_183144_melville.all.mb58.gz 26.22MB Kongsberg multibeam vendor format
1242_20140902_190200_melville.all.mb58.gz 25.81MB Kongsberg multibeam vendor format
1243_20140902_193149_melville.all.mb58.gz 25.99MB Kongsberg multibeam vendor format
1244_20140902_200152_melville.all.mb58.gz 25.89MB Kongsberg multibeam vendor format
1245_20140902_203155_melville.all.mb58.gz 25.65MB Kongsberg multibeam vendor format
1246_20140902_210141_melville.all.mb58.gz 26.16MB Kongsberg multibeam vendor format
1247_20140902_213159_melville.all.mb58.gz 25.93MB Kongsberg multibeam vendor format
1248_20140902_220158_melville.all.mb58.gz 25.88MB Kongsberg multibeam vendor format
1249_20140902_223156_melville.all.mb58.gz 25.78MB Kongsberg multibeam vendor format
1250_20140902_230142_melville.all.mb58.gz 26.05MB Kongsberg multibeam vendor format
1251_20140902_233151_melville.all.mb58.gz 26.12MB Kongsberg multibeam vendor format
1252_20140903_000150_melville.all.mb58.gz 25.86MB Kongsberg multibeam vendor format
1253_20140903_003140_melville.all.mb58.gz 26.27MB Kongsberg multibeam vendor format
1254_20140903_010154_melville.all.mb58.gz 25.86MB Kongsberg multibeam vendor format
1255_20140903_013149_melville.all.mb58.gz 25.58MB Kongsberg multibeam vendor format
1256_20140903_020145_melville.all.mb58.gz 26.15MB Kongsberg multibeam vendor format
1257_20140903_023155_melville.all.mb58.gz 25.86MB Kongsberg multibeam vendor format
1258_20140903_030150_melville.all.mb58.gz 26.08MB Kongsberg multibeam vendor format
1259_20140903_033156_melville.all.mb58.gz 25.98MB Kongsberg multibeam vendor format
1260_20140903_040154_melville.all.mb58.gz 25.93MB Kongsberg multibeam vendor format
1261_20140903_043148_melville.all.mb58.gz 26.07MB Kongsberg multibeam vendor format
1262_20140903_050158_melville.all.mb58.gz 26.06MB Kongsberg multibeam vendor format
1263_20140903_053149_melville.all.mb58.gz 26.19MB Kongsberg multibeam vendor format
1264_20140903_060150_melville.all.mb58.gz 26.10MB Kongsberg multibeam vendor format
1265_20140903_063142_melville.all.mb58.gz 26.24MB Kongsberg multibeam vendor format
1266_20140903_070144_melville.all.mb58.gz 26.47MB Kongsberg multibeam vendor format
1267_20140903_073156_melville.all.mb58.gz 25.60MB Kongsberg multibeam vendor format
1268_20140903_080138_melville.all.mb58.gz 26.03MB Kongsberg multibeam vendor format
1269_20140903_083144_melville.all.mb58.gz 26.33MB Kongsberg multibeam vendor format
1270_20140903_090151_melville.all.mb58.gz 26.10MB Kongsberg multibeam vendor format
1271_20140903_093141_melville.all.mb58.gz 26.14MB Kongsberg multibeam vendor format
1272_20140903_100140_melville.all.mb58.gz 26.20MB Kongsberg multibeam vendor format
1273_20140903_103137_melville.all.mb58.gz 26.16MB Kongsberg multibeam vendor format
1274_20140903_110139_melville.all.mb58.gz 26.21MB Kongsberg multibeam vendor format
1275_20140903_113149_melville.all.mb58.gz 26.79MB Kongsberg multibeam vendor format
1276_20140903_120154_melville.all.mb58.gz 34.27MB Kongsberg multibeam vendor format
1277_20140903_123136_melville.all.mb58.gz 45.35MB Kongsberg multibeam vendor format
1278_20140903_130141_melville.all.mb58.gz 40.71MB Kongsberg multibeam vendor format
1279_20140903_133140_melville.all.mb58.gz 39.55MB Kongsberg multibeam vendor format
1280_20140903_140139_melville.all.mb58.gz 40.70MB Kongsberg multibeam vendor format
1281_20140903_143141_melville.all.mb58.gz 42.39MB Kongsberg multibeam vendor format
1282_20140903_150137_melville.all.mb58.gz 48.18MB Kongsberg multibeam vendor format
1283_20140903_153136_melville.all.mb58.gz 52.37MB Kongsberg multibeam vendor format
1284_20140903_160140_melville.all.mb58.gz 51.64MB Kongsberg multibeam vendor format
1285_20140903_163138_melville.all.mb58.gz 88.93MB Kongsberg multibeam vendor format
1286_20140903_170134_melville.all.mb58.gz 106.65MB Kongsberg multibeam vendor format
1287_20140903_173134_melville.all.mb58.gz 71.16MB Kongsberg multibeam vendor format
1288_20140903_180140_melville.all.mb58.gz 41.94MB Kongsberg multibeam vendor format
1289_20140903_183139_melville.all.mb58.gz 41.94MB Kongsberg multibeam vendor format
1290_20140903_190139_melville.all.mb58.gz 46.67MB Kongsberg multibeam vendor format
1291_20140903_193133_melville.all.mb58.gz 59.42MB Kongsberg multibeam vendor format
1292_20140903_200134_melville.all.mb58.gz 57.07MB Kongsberg multibeam vendor format
1293_20140903_203133_melville.all.mb58.gz 49.60MB Kongsberg multibeam vendor format
1294_20140903_210133_melville.all.mb58.gz 41.44MB Kongsberg multibeam vendor format
1295_20140903_213139_melville.all.mb58.gz 41.30MB Kongsberg multibeam vendor format
1296_20140903_220136_melville.all.mb58.gz 39.58MB Kongsberg multibeam vendor format
1297_20140903_223140_melville.all.mb58.gz 38.06MB Kongsberg multibeam vendor format
1298_20140903_230142_melville.all.mb58.gz 37.81MB Kongsberg multibeam vendor format
1299_20140903_233136_melville.all.mb58.gz 38.21MB Kongsberg multibeam vendor format
1300_20140904_000139_melville.all.mb58.gz 41.85MB Kongsberg multibeam vendor format
1301_20140904_003137_melville.all.mb58.gz 49.42MB Kongsberg multibeam vendor format
1302_20140904_010134_melville.all.mb58.gz 51.43MB Kongsberg multibeam vendor format
1303_20140904_013136_melville.all.mb58.gz 44.79MB Kongsberg multibeam vendor format
1304_20140904_020136_melville.all.mb58.gz 42.28MB Kongsberg multibeam vendor format
1305_20140904_023133_melville.all.mb58.gz 43.04MB Kongsberg multibeam vendor format
1306_20140904_030137_melville.all.mb58.gz 46.25MB Kongsberg multibeam vendor format
1307_20140904_033136_melville.all.mb58.gz 46.83MB Kongsberg multibeam vendor format
1308_20140904_040132_melville.all.mb58.gz 48.18MB Kongsberg multibeam vendor format
1309_20140904_043131_melville.all.mb58.gz 48.02MB Kongsberg multibeam vendor format
1310_20140904_050132_melville.all.mb58.gz 47.94MB Kongsberg multibeam vendor format
1311_20140904_053130_melville.all.mb58.gz 49.00MB Kongsberg multibeam vendor format
1312_20140904_060134_melville.all.mb58.gz 46.86MB Kongsberg multibeam vendor format
1313_20140904_063131_melville.all.mb58.gz 52.78MB Kongsberg multibeam vendor format
1314_20140904_070134_melville.all.mb58.gz 51.43MB Kongsberg multibeam vendor format
1315_20140904_073131_melville.all.mb58.gz 51.29MB Kongsberg multibeam vendor format
1316_20140904_080133_melville.all.mb58.gz 52.39MB Kongsberg multibeam vendor format
1317_20140904_083133_melville.all.mb58.gz 55.83MB Kongsberg multibeam vendor format
1318_20140904_090129_melville.all.mb58.gz 48.73MB Kongsberg multibeam vendor format
1319_20140904_093128_melville.all.mb58.gz 49.58MB Kongsberg multibeam vendor format
1320_20140904_100130_melville.all.mb58.gz 50.21MB Kongsberg multibeam vendor format
1321_20140904_103132_melville.all.mb58.gz 49.64MB Kongsberg multibeam vendor format
1322_20140904_110129_melville.all.mb58.gz 48.10MB Kongsberg multibeam vendor format
1323_20140904_113128_melville.all.mb58.gz 54.66MB Kongsberg multibeam vendor format
1324_20140904_120131_melville.all.mb58.gz 61.60MB Kongsberg multibeam vendor format
1325_20140904_123128_melville.all.mb58.gz 82.09MB Kongsberg multibeam vendor format
1326_20140904_130127_melville.all.mb58.gz 135.31MB Kongsberg multibeam vendor format
1327_20140904_133127_melville.all.mb58.gz 99.52MB Kongsberg multibeam vendor format
1328_20140904_140133_melville.all.mb58.gz 223.76MB Kongsberg multibeam vendor format
1329_20140904_143127_melville.all.mb58.gz 247.72MB Kongsberg multibeam vendor format
1330_20140904_150126_melville.all.mb58.gz 62.50MB Kongsberg multibeam vendor format

Metadata Files: 2

Files File Size Description
MV1406_Multibeam.xml NCEI created ISO metadata
em122_bag_info.tar.gz 82.6KB Additional cruise information